Wetterdaten: Sonntag, 05.04.2026
Datum Zeit Temp. Aussen Temp. o. S. Temp +5cm Feuchte Auss Luftdruck Regen Sonnenschein Solar Windböen Empfang
05.04.2026 00:00 11,7 °C 10,6 °C 7,2 °C 88 % 1014,8 hPa 0,0 l/m² 0 min 0 W/m² 12,9 km/h (3 Bft) 95,74 %
05.04.2026 00:02 11,7 °C 10,6 °C 7,2 °C 88 % 1014,8 hPa 0,0 l/m² 0 min 0 W/m² 12,9 km/h (3 Bft) 95,74 %
05.04.2026 00:04 11,7 °C 10,6 °C 7,2 °C 88 % 1014,7 hPa 0,0 l/m² 0 min 0 W/m² 12,9 km/h (3 Bft) 100,00 %
05.04.2026 00:07 11,7 °C 10,6 °C 7,2 °C 88 % 1014,7 hPa 0,0 l/m² 0 min 0 W/m² 19,3 km/h (3 Bft) 96,10 %
05.04.2026 00:08 11,7 °C 10,6 °C 7,2 °C 88 % 1014,7 hPa 0,0 l/m² 0 min 0 W/m² 16,1 km/h (3 Bft) 95,65 %
05.04.2026 00:10 11,7 °C 10,6 °C 7,2 °C 88 % 1014,7 hPa 0,0 l/m² 0 min 0 W/m² 19,3 km/h (3 Bft) 100,00 %
05.04.2026 00:12 11,7 °C 10,6 °C 7,2 °C 88 % 1014,7 hPa 0,0 l/m² 0 min 0 W/m² 16,1 km/h (3 Bft) 97,22 %
05.04.2026 00:14 11,6 °C 10,6 °C 7,2 °C 88 % 1014,7 hPa 0,0 l/m² 0 min 0 W/m² 12,9 km/h (3 Bft) 95,00 %
05.04.2026 00:16 11,6 °C 10,6 °C 7,2 °C 88 % 1014,7 hPa 0,0 l/m² 0 min 0 W/m² 6,4 km/h (2 Bft) 100,00 %
05.04.2026 00:18 11,6 °C 10,6 °C 7,2 °C 88 % 1014,7 hPa 0,0 l/m² 0 min 0 W/m² 6,4 km/h (2 Bft) 100,00 %
05.04.2026 00:20 11,6 °C 10,6 °C 7,2 °C 88 % 1014,6 hPa 0,0 l/m² 0 min 0 W/m² 12,9 km/h (3 Bft) 100,00 %
05.04.2026 00:22 11,6 °C 10,6 °C 7,2 °C 88 % 1014,6 hPa 0,0 l/m² 0 min 0 W/m² 12,9 km/h (3 Bft) 100,00 %
05.04.2026 00:24 11,6 °C 10,6 °C 7,2 °C 88 % 1014,7 hPa 0,0 l/m² 0 min 0 W/m² 12,9 km/h (3 Bft) 100,00 %
05.04.2026 00:26 11,6 °C 10,6 °C 7,2 °C 88 % 1014,6 hPa 0,0 l/m² 0 min 0 W/m² 12,9 km/h (3 Bft) 60,00 %
05.04.2026 00:28 11,6 °C 10,6 °C 7,2 °C 88 % 1014,6 hPa 0,0 l/m² 0 min 0 W/m² 16,1 km/h (3 Bft) 100,00 %
05.04.2026 00:30 11,6 °C 10,6 °C 7,2 °C 88 % 1014,6 hPa 0,0 l/m² 0 min 0 W/m² 12,9 km/h (3 Bft) 100,00 %
05.04.2026 00:32 11,6 °C 10,6 °C 7,2 °C 88 % 1014,5 hPa 0,0 l/m² 0 min 0 W/m² 6,4 km/h (2 Bft) 100,00 %
05.04.2026 00:34 11,5 °C 10,6 °C 7,2 °C 88 % 1014,5 hPa 0,0 l/m² 0 min 0 W/m² 6,4 km/h (2 Bft) 100,00 %
05.04.2026 00:36 11,5 °C 10,6 °C 7,2 °C 87 % 1014,5 hPa 0,0 l/m² 0 min 0 W/m² 9,7 km/h (2 Bft) 97,87 %
05.04.2026 00:38 11,5 °C 10,6 °C 7,2 °C 87 % 1014,5 hPa 0,0 l/m² 0 min 0 W/m² 12,9 km/h (3 Bft) 100,00 %
05.04.2026 00:40 11,5 °C 10,6 °C 7,2 °C 87 % 1014,5 hPa 0,0 l/m² 0 min 0 W/m² 6,4 km/h (2 Bft) 100,00 %
05.04.2026 00:42 11,5 °C 10,6 °C 7,2 °C 87 % 1014,6 hPa 0,0 l/m² 0 min 0 W/m² 9,7 km/h (2 Bft) 100,00 %
05.04.2026 00:44 11,4 °C 10,6 °C 7,2 °C 88 % 1014,5 hPa 0,0 l/m² 0 min 0 W/m² 16,1 km/h (3 Bft) 100,00 %
05.04.2026 00:46 11,4 °C 10,6 °C 7,2 °C 87 % 1014,5 hPa 0,0 l/m² 0 min 0 W/m² 12,9 km/h (3 Bft) 97,87 %
05.04.2026 00:48 11,4 °C 10,6 °C 7,2 °C 87 % 1014,5 hPa 0,0 l/m² 0 min 0 W/m² 9,7 km/h (2 Bft) 100,00 %
05.04.2026 00:50 11,4 °C 10,6 °C 7,2 °C 87 % 1014,4 hPa 0,0 l/m² 0 min 0 W/m² 12,9 km/h (3 Bft) 100,00 %
05.04.2026 00:52 11,4 °C 10,6 °C 7,2 °C 87 % 1014,4 hPa 0,0 l/m² 0 min 0 W/m² 6,4 km/h (2 Bft) 98,00 %
05.04.2026 00:54 11,4 °C 10,6 °C 6,7 °C 87 % 1014,4 hPa 0,0 l/m² 0 min 0 W/m² 6,4 km/h (2 Bft) 97,96 %
05.04.2026 00:56 11,4 °C 10,6 °C 6,7 °C 87 % 1014,4 hPa 0,0 l/m² 0 min 0 W/m² 12,9 km/h (3 Bft) 97,87 %
05.04.2026 00:58 11,4 °C 10,6 °C 6,7 °C 87 % 1014,4 hPa 0,0 l/m² 0 min 0 W/m² 9,7 km/h (2 Bft) 97,87 %
05.04.2026 01:00 11,3 °C 10,6 °C 6,7 °C 87 % 1014,3 hPa 0,0 l/m² 0 min 0 W/m² 6,4 km/h (2 Bft) 98,00 %
05.04.2026 01:02 11,3 °C 10,0 °C 6,7 °C 87 % 1014,3 hPa 0,0 l/m² 0 min 0 W/m² 6,4 km/h (2 Bft) 97,87 %
05.04.2026 01:04 11,3 °C 10,0 °C 6,7 °C 87 % 1014,2 hPa 0,0 l/m² 0 min 0 W/m² 19,3 km/h (3 Bft) 95,74 %
05.04.2026 01:06 11,3 °C 10,0 °C 6,7 °C 87 % 1014,1 hPa 0,0 l/m² 0 min 0 W/m² 6,4 km/h (2 Bft) 95,24 %
05.04.2026 01:08 11,3 °C 10,0 °C 6,7 °C 87 % 1014,1 hPa 0,0 l/m² 0 min 0 W/m² 12,9 km/h (3 Bft) 95,74 %
05.04.2026 01:10 11,3 °C 10,6 °C 6,7 °C 87 % 1014,1 hPa 0,0 l/m² 0 min 0 W/m² 12,9 km/h (3 Bft) 95,74 %
05.04.2026 01:12 11,2 °C 10,6 °C 6,7 °C 87 % 1014,1 hPa 0,0 l/m² 0 min 0 W/m² 12,9 km/h (3 Bft) 93,62 %
05.04.2026 01:14 11,2 °C 10,6 °C 6,7 °C 87 % 1014,0 hPa 0,0 l/m² 0 min 0 W/m² 12,9 km/h (3 Bft) 95,24 %
05.04.2026 01:16 11,2 °C 10,6 °C 6,7 °C 87 % 1014,1 hPa 0,0 l/m² 0 min 0 W/m² 12,9 km/h (3 Bft) 95,74 %
05.04.2026 01:18 11,2 °C 10,6 °C 6,7 °C 87 % 1014,0 hPa 0,0 l/m² 0 min 0 W/m² 12,9 km/h (3 Bft) 95,74 %
05.04.2026 01:20 11,2 °C 10,6 °C 6,7 °C 87 % 1014,0 hPa 0,0 l/m² 0 min 0 W/m² 12,9 km/h (3 Bft) 90,00 %
05.04.2026 01:22 11,2 °C 10,6 °C 6,7 °C 87 % 1014,0 hPa 0,0 l/m² 0 min 0 W/m² 12,9 km/h (3 Bft) 95,74 %
05.04.2026 01:24 11,2 °C 10,6 °C 6,7 °C 87 % 1014,0 hPa 0,0 l/m² 0 min 0 W/m² 16,1 km/h (3 Bft) 94,00 %
05.04.2026 01:26 11,2 °C 10,6 °C 6,7 °C 87 % 1014,0 hPa 0,0 l/m² 0 min 0 W/m² 9,7 km/h (2 Bft) 96,00 %
05.04.2026 01:28 11,2 °C 10,6 °C 6,7 °C 87 % 1013,9 hPa 0,0 l/m² 0 min 0 W/m² 9,7 km/h (2 Bft) 93,62 %
05.04.2026 01:30 11,2 °C 10,6 °C 6,7 °C 87 % 1013,9 hPa 0,0 l/m² 0 min 0 W/m² 16,1 km/h (3 Bft) 93,62 %
05.04.2026 01:32 11,2 °C 10,6 °C 6,7 °C 87 % 1013,9 hPa 0,0 l/m² 0 min 0 W/m² 12,9 km/h (3 Bft) 93,48 %
05.04.2026 01:34 11,2 °C 10,6 °C 6,7 °C 87 % 1013,9 hPa 0,0 l/m² 0 min 0 W/m² 12,9 km/h (3 Bft) 93,62 %
05.04.2026 01:36 11,2 °C 10,6 °C 6,7 °C 87 % 1013,9 hPa 0,0 l/m² 0 min 0 W/m² 6,4 km/h (2 Bft) 91,67 %
05.04.2026 01:38 11,2 °C 10,6 °C 6,7 °C 87 % 1013,8 hPa 0,0 l/m² 0 min 0 W/m² 9,7 km/h (2 Bft) 95,92 %
05.04.2026 01:40 11,2 °C 10,6 °C 6,7 °C 87 % 1013,8 hPa 0,0 l/m² 0 min 0 W/m² 6,4 km/h (2 Bft) 95,74 %
05.04.2026 01:42 11,2 °C 10,6 °C 6,7 °C 87 % 1013,8 hPa 0,0 l/m² 0 min 0 W/m² 6,4 km/h (2 Bft) 93,62 %
05.04.2026 01:44 11,2 °C 10,6 °C 6,7 °C 87 % 1013,8 hPa 0,0 l/m² 0 min 0 W/m² 12,9 km/h (3 Bft) 95,74 %
05.04.2026 01:46 11,2 °C 10,6 °C 6,7 °C 87 % 1013,7 hPa 0,0 l/m² 0 min 0 W/m² 9,7 km/h (2 Bft) 96,00 %
05.04.2026 01:48 11,2 °C 10,6 °C 6,7 °C 87 % 1013,7 hPa 0,0 l/m² 0 min 0 W/m² 9,7 km/h (2 Bft) 97,87 %
05.04.2026 01:50 11,1 °C 10,6 °C 6,7 °C 87 % 1013,7 hPa 0,0 l/m² 0 min 0 W/m² 6,4 km/h (2 Bft) 96,00 %
05.04.2026 01:52 11,2 °C 10,6 °C 6,7 °C 87 % 1013,6 hPa 0,0 l/m² 0 min 0 W/m² 16,1 km/h (3 Bft) 95,74 %
05.04.2026 01:54 11,1 °C 10,6 °C 6,7 °C 86 % 1013,6 hPa 0,0 l/m² 0 min 0 W/m² 12,9 km/h (3 Bft) 94,74 %
05.04.2026 01:56 11,1 °C 10,6 °C 6,7 °C 86 % 1013,6 hPa 0,0 l/m² 0 min 0 W/m² 12,9 km/h (3 Bft) 93,62 %
05.04.2026 01:58 11,1 °C 10,6 °C 6,7 °C 86 % 1013,6 hPa 0,0 l/m² 0 min 0 W/m² 12,9 km/h (3 Bft) 97,87 %
05.04.2026 02:00 11,1 °C 10,6 °C 6,7 °C 86 % 1013,6 hPa 0,0 l/m² 0 min 0 W/m² 16,1 km/h (3 Bft) 100,00 %
05.04.2026 02:02 11,1 °C 10,6 °C 6,7 °C 86 % 1013,5 hPa 0,0 l/m² 0 min 0 W/m² 9,7 km/h (2 Bft) 97,87 %
05.04.2026 02:04 11,1 °C 10,6 °C 6,7 °C 86 % 1013,6 hPa 0,0 l/m² 0 min 0 W/m² 9,7 km/h (2 Bft) 97,87 %
05.04.2026 02:06 11,1 °C 10,6 °C 6,7 °C 86 % 1013,6 hPa 0,0 l/m² 0 min 0 W/m² 12,9 km/h (3 Bft) 100,00 %
05.04.2026 02:08 11,1 °C 10,6 °C 6,7 °C 86 % 1013,5 hPa 0,0 l/m² 0 min 0 W/m² 16,1 km/h (3 Bft) 100,00 %
05.04.2026 02:10 11,1 °C 10,6 °C 6,7 °C 86 % 1013,5 hPa 0,0 l/m² 0 min 0 W/m² 12,9 km/h (3 Bft) 100,00 %
05.04.2026 02:12 11,1 °C 10,6 °C 6,7 °C 86 % 1013,5 hPa 0,0 l/m² 0 min 0 W/m² 12,9 km/h (3 Bft) 100,00 %
05.04.2026 02:14 11,1 °C 10,6 °C 6,7 °C 86 % 1013,3 hPa 0,0 l/m² 0 min 0 W/m² 12,9 km/h (3 Bft) 98,00 %
05.04.2026 02:16 11,2 °C 10,6 °C 6,7 °C 86 % 1013,3 hPa 0,0 l/m² 0 min 0 W/m² 12,9 km/h (3 Bft) 100,00 %
05.04.2026 02:18 11,2 °C 10,6 °C 6,7 °C 86 % 1013,3 hPa 0,0 l/m² 0 min 0 W/m² 16,1 km/h (3 Bft) 100,00 %
05.04.2026 02:20 11,2 °C 10,6 °C 6,7 °C 86 % 1013,2 hPa 0,0 l/m² 0 min 0 W/m² 12,9 km/h (3 Bft) 98,00 %
05.04.2026 02:22 11,2 °C 10,6 °C 6,7 °C 86 % 1013,2 hPa 0,0 l/m² 0 min 0 W/m² 16,1 km/h (3 Bft) 100,00 %
05.04.2026 02:24 11,2 °C 10,6 °C 6,7 °C 86 % 1013,2 hPa 0,0 l/m² 0 min 0 W/m² 16,1 km/h (3 Bft) 100,00 %
05.04.2026 02:26 11,2 °C 10,6 °C 6,7 °C 86 % 1013,2 hPa 0,0 l/m² 0 min 0 W/m² 16,1 km/h (3 Bft) 100,00 %
05.04.2026 02:28 11,2 °C 10,6 °C 6,7 °C 86 % 1013,1 hPa 0,0 l/m² 0 min 0 W/m² 16,1 km/h (3 Bft) 98,00 %
05.04.2026 02:30 11,2 °C 10,6 °C 6,7 °C 86 % 1013,2 hPa 0,0 l/m² 0 min 0 W/m² 16,1 km/h (3 Bft) 100,00 %
05.04.2026 02:32 11,2 °C 10,6 °C 6,7 °C 85 % 1013,0 hPa 0,0 l/m² 0 min 0 W/m² 16,1 km/h (3 Bft) 97,87 %
05.04.2026 02:34 11,2 °C 10,0 °C 6,7 °C 86 % 1013,0 hPa 0,0 l/m² 0 min 0 W/m² 16,1 km/h (3 Bft) 97,87 %
05.04.2026 02:36 11,1 °C 10,0 °C 6,7 °C 86 % 1012,9 hPa 0,0 l/m² 0 min 0 W/m² 12,9 km/h (3 Bft) 97,87 %
05.04.2026 02:38 11,1 °C 10,0 °C 6,7 °C 86 % 1012,9 hPa 0,0 l/m² 0 min 0 W/m² 19,3 km/h (3 Bft) 100,00 %
05.04.2026 02:40 11,1 °C 10,0 °C 6,7 °C 86 % 1012,9 hPa 0,0 l/m² 0 min 0 W/m² 12,9 km/h (3 Bft) 100,00 %
05.04.2026 02:42 11,1 °C 10,0 °C 6,7 °C 86 % 1012,9 hPa 0,0 l/m² 0 min 0 W/m² 19,3 km/h (3 Bft) 100,00 %
05.04.2026 02:44 11,1 °C 10,0 °C 6,7 °C 86 % 1012,8 hPa 0,0 l/m² 0 min 0 W/m² 12,9 km/h (3 Bft) 100,00 %
05.04.2026 02:46 11,1 °C 10,0 °C 6,7 °C 86 % 1012,8 hPa 0,0 l/m² 0 min 0 W/m² 12,9 km/h (3 Bft) 100,00 %
05.04.2026 02:48 11,1 °C 10,0 °C 6,7 °C 86 % 1012,8 hPa 0,0 l/m² 0 min 0 W/m² 12,9 km/h (3 Bft) 100,00 %
05.04.2026 02:50 11,1 °C 10,0 °C 6,7 °C 85 % 1012,7 hPa 0,0 l/m² 0 min 0 W/m² 12,9 km/h (3 Bft) 100,00 %
05.04.2026 02:52 11,1 °C 10,0 °C 6,7 °C 85 % 1012,8 hPa 0,0 l/m² 0 min 0 W/m² 12,9 km/h (3 Bft) 100,00 %
05.04.2026 02:54 11,1 °C 10,0 °C 6,7 °C 85 % 1012,7 hPa 0,0 l/m² 0 min 0 W/m² 12,9 km/h (3 Bft) 100,00 %
05.04.2026 02:56 11,1 °C 10,0 °C 6,7 °C 85 % 1012,7 hPa 0,0 l/m² 0 min 0 W/m² 12,9 km/h (3 Bft) 100,00 %
05.04.2026 02:58 11,0 °C 10,0 °C 6,7 °C 85 % 1012,6 hPa 0,0 l/m² 0 min 0 W/m² 12,9 km/h (3 Bft) 100,00 %
05.04.2026 03:00 11,0 °C 10,0 °C 6,7 °C 85 % 1012,5 hPa 0,0 l/m² 0 min 0 W/m² 12,9 km/h (3 Bft) 100,00 %
05.04.2026 03:02 11,0 °C 10,6 °C 6,7 °C 86 % 1012,5 hPa 0,0 l/m² 0 min 0 W/m² 19,3 km/h (3 Bft) 100,00 %
05.04.2026 03:04 11,1 °C 10,6 °C 6,7 °C 86 % 1012,5 hPa 0,0 l/m² 0 min 0 W/m² 16,1 km/h (3 Bft) 100,00 %
05.04.2026 03:06 11,1 °C 11,1 °C 7,2 °C 86 % 1012,4 hPa 0,0 l/m² 0 min 0 W/m² 12,9 km/h (3 Bft) 98,33 %
05.04.2026 03:08 11,2 °C 11,1 °C 7,2 °C 86 % 1012,3 hPa 0,0 l/m² 0 min 0 W/m² 29,0 km/h (5 Bft) 100,00 %
05.04.2026 03:10 11,3 °C 11,7 °C 7,2 °C 85 % 1012,2 hPa 0,0 l/m² 0 min 0 W/m² 22,5 km/h (4 Bft) 100,00 %
05.04.2026 03:12 11,5 °C 11,7 °C 7,8 °C 85 % 1012,2 hPa 0,0 l/m² 0 min 0 W/m² 19,3 km/h (3 Bft) 95,92 %
05.04.2026 03:14 11,6 °C 11,7 °C 7,8 °C 85 % 1012,2 hPa 0,0 l/m² 0 min 0 W/m² 16,1 km/h (3 Bft) 100,00 %
05.04.2026 03:16 11,8 °C 12,2 °C 7,8 °C 84 % 1012,1 hPa 0,0 l/m² 0 min 0 W/m² 19,3 km/h (3 Bft) 100,00 %
05.04.2026 03:18 11,9 °C 12,2 °C 7,8 °C 84 % 1012,1 hPa 0,0 l/m² 0 min 0 W/m² 22,5 km/h (4 Bft) 97,96 %
05.04.2026 03:20 12,1 °C 12,2 °C 7,8 °C 83 % 1012,0 hPa 0,0 l/m² 0 min 0 W/m² 19,3 km/h (3 Bft) 98,00 %
05.04.2026 03:22 12,2 °C 12,2 °C 7,8 °C 83 % 1012,1 hPa 0,0 l/m² 0 min 0 W/m² 25,7 km/h (4 Bft) 95,74 %
05.04.2026 03:24 12,3 °C 12,2 °C 8,3 °C 82 % 1011,9 hPa 0,0 l/m² 0 min 0 W/m² 16,1 km/h (3 Bft) 97,87 %
05.04.2026 03:26 12,5 °C 12,2 °C 8,3 °C 82 % 1011,9 hPa 0,0 l/m² 0 min 0 W/m² 22,5 km/h (4 Bft) 95,24 %
05.04.2026 03:28 12,6 °C 12,2 °C 8,3 °C 81 % 1011,8 hPa 0,0 l/m² 0 min 0 W/m² 16,1 km/h (3 Bft) 97,87 %
05.04.2026 03:30 12,7 °C 12,8 °C 8,3 °C 81 % 1011,8 hPa 0,0 l/m² 0 min 0 W/m² 25,7 km/h (4 Bft) 95,74 %
05.04.2026 03:32 12,8 °C 12,8 °C 8,3 °C 80 % 1011,8 hPa 0,0 l/m² 0 min 0 W/m² 22,5 km/h (4 Bft) 95,74 %
05.04.2026 03:34 12,9 °C 12,8 °C 8,3 °C 80 % 1011,7 hPa 0,0 l/m² 0 min 0 W/m² 25,7 km/h (4 Bft) 95,74 %
05.04.2026 03:36 13,0 °C 12,8 °C 8,3 °C 79 % 1011,8 hPa 0,0 l/m² 0 min 0 W/m² 35,4 km/h (5 Bft) 92,00 %
05.04.2026 03:38 13,1 °C 12,8 °C 8,3 °C 79 % 1011,8 hPa 0,0 l/m² 0 min 0 W/m² 22,5 km/h (4 Bft) 95,74 %
05.04.2026 03:40 13,2 °C 12,8 °C 8,3 °C 79 % 1011,8 hPa 0,0 l/m² 0 min 0 W/m² 19,3 km/h (3 Bft) 95,74 %
05.04.2026 03:42 13,2 °C 12,8 °C 8,3 °C 79 % 1011,7 hPa 0,0 l/m² 0 min 0 W/m² 22,5 km/h (4 Bft) 93,62 %
05.04.2026 03:44 13,3 °C 12,8 °C 8,3 °C 78 % 1011,8 hPa 0,0 l/m² 0 min 0 W/m² 25,7 km/h (4 Bft) 93,62 %
05.04.2026 03:46 13,3 °C 12,8 °C 8,3 °C 78 % 1011,7 hPa 0,0 l/m² 0 min 0 W/m² 25,7 km/h (4 Bft) 95,74 %
05.04.2026 03:48 13,4 °C 12,8 °C 8,3 °C 78 % 1011,6 hPa 0,0 l/m² 0 min 0 W/m² 22,5 km/h (4 Bft) 96,00 %
05.04.2026 03:50 13,4 °C 12,8 °C 8,9 °C 78 % 1011,7 hPa 0,0 l/m² 0 min 0 W/m² 25,7 km/h (4 Bft) 95,24 %
05.04.2026 03:52 13,5 °C 12,8 °C 8,9 °C 78 % 1011,6 hPa 0,0 l/m² 0 min 0 W/m² 32,2 km/h (5 Bft) 98,11 %
05.04.2026 03:54 13,6 °C 12,8 °C 8,9 °C 77 % 1011,6 hPa 0,0 l/m² 0 min 0 W/m² 25,7 km/h (4 Bft) 97,87 %
05.04.2026 03:56 13,6 °C 12,8 °C 8,9 °C 77 % 1011,5 hPa 0,0 l/m² 0 min 0 W/m² 22,5 km/h (4 Bft) 93,62 %
05.04.2026 03:58 13,6 °C 12,8 °C 8,9 °C 77 % 1011,5 hPa 0,0 l/m² 0 min 0 W/m² 19,3 km/h (3 Bft) 97,87 %
05.04.2026 04:00 13,7 °C 12,8 °C 8,9 °C 77 % 1011,5 hPa 0,0 l/m² 0 min 0 W/m² 16,1 km/h (3 Bft) 97,83 %
05.04.2026 04:02 13,7 °C 12,8 °C 8,9 °C 77 % 1011,4 hPa 0,0 l/m² 0 min 0 W/m² 38,6 km/h (5 Bft) 92,31 %
05.04.2026 04:04 13,7 °C 12,8 °C 8,9 °C 77 % 1011,5 hPa 0,0 l/m² 0 min 0 W/m² 29,0 km/h (5 Bft) 95,74 %
05.04.2026 04:06 13,7 °C 12,8 °C 8,9 °C 77 % 1011,4 hPa 0,0 l/m² 0 min 0 W/m² 22,5 km/h (4 Bft) 94,83 %
05.04.2026 04:08 13,8 °C 12,8 °C 8,9 °C 77 % 1011,4 hPa 0,0 l/m² 0 min 0 W/m² 25,7 km/h (4 Bft) 94,29 %
05.04.2026 04:10 13,8 °C 12,8 °C 8,9 °C 77 % 1011,4 hPa 0,0 l/m² 0 min 0 W/m² 22,5 km/h (4 Bft) 91,49 %
05.04.2026 04:12 13,8 °C 12,8 °C 8,9 °C 77 % 1011,4 hPa 0,0 l/m² 0 min 0 W/m² 29,0 km/h (5 Bft) 93,62 %
05.04.2026 04:14 13,8 °C 13,3 °C 8,9 °C 77 % 1011,4 hPa 0,0 l/m² 0 min 0 W/m² 25,7 km/h (4 Bft) 98,00 %
05.04.2026 04:16 13,8 °C 12,8 °C 8,9 °C 77 % 1011,4 hPa 0,0 l/m² 0 min 0 W/m² 16,1 km/h (3 Bft) 95,74 %
05.04.2026 04:18 13,8 °C 12,8 °C 8,9 °C 77 % 1011,5 hPa 0,0 l/m² 0 min 0 W/m² 19,3 km/h (3 Bft) 91,49 %
05.04.2026 04:20 13,9 °C 13,3 °C 8,9 °C 77 % 1011,3 hPa 0,0 l/m² 0 min 0 W/m² 29,0 km/h (5 Bft) 95,24 %
05.04.2026 04:22 13,9 °C 12,8 °C 8,9 °C 76 % 1011,4 hPa 0,0 l/m² 0 min 0 W/m² 19,3 km/h (3 Bft) 96,00 %
05.04.2026 04:24 13,9 °C 12,8 °C 8,9 °C 76 % 1011,4 hPa 0,0 l/m² 0 min 0 W/m² 19,3 km/h (3 Bft) 93,62 %
05.04.2026 04:26 13,9 °C 12,8 °C 8,9 °C 76 % 1011,4 hPa 0,0 l/m² 0 min 0 W/m² 19,3 km/h (3 Bft) 94,00 %
05.04.2026 04:28 13,9 °C 12,8 °C 8,9 °C 76 % 1011,4 hPa 0,0 l/m² 0 min 0 W/m² 16,1 km/h (3 Bft) 97,62 %
05.04.2026 04:30 13,9 °C 12,8 °C 8,9 °C 76 % 1011,4 hPa 0,0 l/m² 0 min 0 W/m² 29,0 km/h (5 Bft) 95,74 %
05.04.2026 04:32 13,9 °C 12,8 °C 8,9 °C 76 % 1011,5 hPa 0,0 l/m² 0 min 0 W/m² 25,7 km/h (4 Bft) 97,87 %
05.04.2026 04:34 14,0 °C 13,3 °C 8,9 °C 76 % 1011,5 hPa 0,0 l/m² 0 min 0 W/m² 25,7 km/h (4 Bft) 97,87 %
05.04.2026 04:36 14,0 °C 13,3 °C 8,9 °C 76 % 1011,4 hPa 0,0 l/m² 0 min 0 W/m² 29,0 km/h (5 Bft) 93,62 %
05.04.2026 04:38 14,1 °C 13,3 °C 8,9 °C 76 % 1011,4 hPa 0,0 l/m² 0 min 0 W/m² 19,3 km/h (3 Bft) 97,87 %
05.04.2026 04:40 14,1 °C 13,3 °C 8,9 °C 76 % 1011,4 hPa 0,0 l/m² 0 min 0 W/m² 19,3 km/h (3 Bft) 97,87 %
05.04.2026 04:42 14,1 °C 13,3 °C 8,9 °C 76 % 1011,4 hPa 0,0 l/m² 0 min 0 W/m² 19,3 km/h (3 Bft) 95,65 %
05.04.2026 04:44 14,1 °C 13,3 °C 8,9 °C 76 % 1011,4 hPa 0,0 l/m² 0 min 0 W/m² 25,7 km/h (4 Bft) 97,87 %
05.04.2026 04:46 14,1 °C 13,3 °C 8,9 °C 76 % 1011,4 hPa 0,0 l/m² 0 min 0 W/m² 22,5 km/h (4 Bft) 96,00 %
05.04.2026 04:48 14,2 °C 13,3 °C 8,9 °C 76 % 1011,3 hPa 0,0 l/m² 0 min 0 W/m² 29,0 km/h (5 Bft) 97,87 %
05.04.2026 04:50 14,3 °C 13,3 °C 8,9 °C 76 % 1011,4 hPa 0,0 l/m² 0 min 0 W/m² 22,5 km/h (4 Bft) 100,00 %
05.04.2026 04:52 14,3 °C 13,3 °C 9,4 °C 76 % 1011,3 hPa 0,0 l/m² 0 min 0 W/m² 25,7 km/h (4 Bft) 98,00 %
05.04.2026 04:54 14,3 °C 13,9 °C 9,4 °C 76 % 1011,3 hPa 0,0 l/m² 0 min 0 W/m² 32,2 km/h (5 Bft) 95,74 %
05.04.2026 04:56 14,3 °C 13,9 °C 9,4 °C 76 % 1011,3 hPa 0,0 l/m² 0 min 0 W/m² 16,1 km/h (3 Bft) 97,87 %
05.04.2026 04:58 14,4 °C 13,9 °C 9,4 °C 76 % 1011,3 hPa 0,0 l/m² 0 min 0 W/m² 25,7 km/h (4 Bft) 100,00 %
05.04.2026 05:00 14,5 °C 13,9 °C 9,4 °C 76 % 1011,2 hPa 0,0 l/m² 0 min 0 W/m² 32,2 km/h (5 Bft) 97,87 %
05.04.2026 05:02 14,6 °C 13,9 °C 9,4 °C 75 % 1011,3 hPa 0,0 l/m² 0 min 0 W/m² 22,5 km/h (4 Bft) 98,11 %
05.04.2026 05:04 14,7 °C 13,9 °C 9,4 °C 75 % 1011,2 hPa 0,0 l/m² 0 min 0 W/m² 29,0 km/h (5 Bft) 96,15 %
05.04.2026 05:06 14,7 °C 13,9 °C 9,4 °C 75 % 1011,3 hPa 0,0 l/m² 0 min 0 W/m² 16,1 km/h (3 Bft) 96,92 %
05.04.2026 05:08 14,7 °C 13,9 °C 9,4 °C 75 % 1011,2 hPa 0,0 l/m² 0 min 0 W/m² 25,7 km/h (4 Bft) 100,00 %
05.04.2026 05:10 14,8 °C 13,9 °C 9,4 °C 75 % 1011,2 hPa 0,0 l/m² 0 min 0 W/m² 38,6 km/h (5 Bft) 100,00 %
05.04.2026 05:12 14,8 °C 13,9 °C 10,0 °C 75 % 1011,1 hPa 0,0 l/m² 0 min 0 W/m² 32,2 km/h (5 Bft) 98,00 %
05.04.2026 05:14 14,9 °C 13,9 °C 10,0 °C 75 % 1011,2 hPa 0,0 l/m² 0 min 0 W/m² 29,0 km/h (5 Bft) 97,14 %
05.04.2026 05:16 14,9 °C 13,9 °C 10,0 °C 75 % 1011,2 hPa 0,0 l/m² 0 min 0 W/m² 32,2 km/h (5 Bft) 95,74 %
05.04.2026 05:18 14,9 °C 13,9 °C 10,0 °C 74 % 1011,3 hPa 0,0 l/m² 0 min 0 W/m² 29,0 km/h (5 Bft) 95,74 %
05.04.2026 05:20 15,0 °C 13,9 °C 10,0 °C 74 % 1011,4 hPa 0,0 l/m² 0 min 0 W/m² 22,5 km/h (4 Bft) 98,08 %
05.04.2026 05:22 15,0 °C 13,9 °C 10,0 °C 74 % 1011,3 hPa 0,0 l/m² 0 min 0 W/m² 29,0 km/h (5 Bft) 98,00 %
05.04.2026 05:24 15,1 °C 14,4 °C 10,0 °C 74 % 1011,3 hPa 0,0 l/m² 0 min 0 W/m² 32,2 km/h (5 Bft) 95,12 %
05.04.2026 05:26 15,1 °C 13,9 °C 10,0 °C 74 % 1011,3 hPa 0,0 l/m² 0 min 0 W/m² 25,7 km/h (4 Bft) 98,00 %
05.04.2026 05:28 15,1 °C 13,9 °C 10,0 °C 74 % 1011,3 hPa 0,0 l/m² 0 min 0 W/m² 35,4 km/h (5 Bft) 95,74 %
05.04.2026 05:30 15,1 °C 14,4 °C 10,0 °C 74 % 1011,5 hPa 0,0 l/m² 0 min 0 W/m² 35,4 km/h (5 Bft) 98,00 %
05.04.2026 05:32 15,1 °C 14,4 °C 10,0 °C 74 % 1011,4 hPa 0,0 l/m² 0 min 0 W/m² 32,2 km/h (5 Bft) 95,74 %
05.04.2026 05:34 15,1 °C 14,4 °C 10,0 °C 73 % 1011,3 hPa 0,0 l/m² 0 min 0 W/m² 45,1 km/h (6 Bft) 97,87 %
05.04.2026 05:36 15,2 °C 14,4 °C 10,0 °C 73 % 1011,4 hPa 0,0 l/m² 0 min 0 W/m² 35,4 km/h (5 Bft) 95,74 %
05.04.2026 05:38 15,2 °C 13,9 °C 10,0 °C 73 % 1011,4 hPa 0,0 l/m² 0 min 0 W/m² 25,7 km/h (4 Bft) 97,56 %
05.04.2026 05:40 15,1 °C 14,4 °C 10,0 °C 73 % 1011,4 hPa 0,0 l/m² 0 min 0 W/m² 32,2 km/h (5 Bft) 97,87 %
05.04.2026 05:42 15,1 °C 13,9 °C 10,0 °C 73 % 1011,3 hPa 0,0 l/m² 0 min 0 W/m² 25,7 km/h (4 Bft) 98,00 %
05.04.2026 05:44 15,1 °C 13,9 °C 10,0 °C 74 % 1011,4 hPa 0,0 l/m² 0 min 0 W/m² 29,0 km/h (5 Bft) 95,74 %
05.04.2026 05:46 15,1 °C 13,9 °C 10,0 °C 73 % 1011,3 hPa 0,0 l/m² 0 min 0 W/m² 25,7 km/h (4 Bft) 95,74 %
05.04.2026 05:48 15,1 °C 13,9 °C 10,0 °C 74 % 1011,3 hPa 0,0 l/m² 0 min 0 W/m² 25,7 km/h (4 Bft) 96,00 %
05.04.2026 05:50 15,1 °C 13,9 °C 10,0 °C 74 % 1011,4 hPa 0,0 l/m² 0 min 0 W/m² 35,4 km/h (5 Bft) 97,83 %
05.04.2026 05:52 15,0 °C 13,9 °C 10,0 °C 74 % 1011,4 hPa 0,0 l/m² 0 min 0 W/m² 16,1 km/h (3 Bft) 100,00 %
05.04.2026 05:54 15,0 °C 13,9 °C 10,0 °C 74 % 1011,4 hPa 0,0 l/m² 0 min 0 W/m² 48,3 km/h (6 Bft) 100,00 %
05.04.2026 05:56 15,0 °C 13,9 °C 10,0 °C 74 % 1011,3 hPa 0,0 l/m² 0 min 0 W/m² 29,0 km/h (5 Bft) 97,22 %
05.04.2026 05:58 14,9 °C 13,9 °C 9,4 °C 74 % 1011,4 hPa 0,0 l/m² 0 min 0 W/m² 29,0 km/h (5 Bft) 97,96 %
05.04.2026 06:00 14,9 °C 13,9 °C 9,4 °C 74 % 1011,4 hPa 0,0 l/m² 0 min 0 W/m² 25,7 km/h (4 Bft) 97,87 %
05.04.2026 06:02 14,9 °C 13,9 °C 9,4 °C 74 % 1011,5 hPa 0,0 l/m² 0 min 0 W/m² 35,4 km/h (5 Bft) 97,87 %
05.04.2026 06:04 14,8 °C 13,9 °C 9,4 °C 74 % 1011,4 hPa 0,0 l/m² 0 min 0 W/m² 29,0 km/h (5 Bft) 98,00 %
05.04.2026 06:06 14,8 °C 13,9 °C 9,4 °C 74 % 1011,5 hPa 0,0 l/m² 0 min 0 W/m² 29,0 km/h (5 Bft) 100,00 %
05.04.2026 06:08 14,8 °C 13,9 °C 9,4 °C 74 % 1011,4 hPa 0,0 l/m² 0 min 0 W/m² 41,8 km/h (6 Bft) 95,74 %
05.04.2026 06:10 14,8 °C 13,9 °C 9,4 °C 74 % 1011,4 hPa 0,0 l/m² 0 min 0 W/m² 22,5 km/h (4 Bft) 98,00 %
05.04.2026 06:12 14,7 °C 13,9 °C 9,4 °C 74 % 1011,4 hPa 0,0 l/m² 0 min 0 W/m² 29,0 km/h (5 Bft) 100,00 %
05.04.2026 06:14 14,7 °C 13,9 °C 9,4 °C 75 % 1011,4 hPa 0,0 l/m² 0 min 0 W/m² 19,3 km/h (3 Bft) 100,00 %
05.04.2026 06:16 14,7 °C 13,3 °C 9,4 °C 75 % 1011,5 hPa 0,0 l/m² 0 min 0 W/m² 35,4 km/h (5 Bft) 97,87 %
05.04.2026 06:18 14,6 °C 13,3 °C 9,4 °C 75 % 1011,4 hPa 0,0 l/m² 0 min 0 W/m² 16,1 km/h (3 Bft) 98,00 %
05.04.2026 06:20 14,6 °C 13,3 °C 9,4 °C 75 % 1011,5 hPa 0,0 l/m² 0 min 0 W/m² 29,0 km/h (5 Bft) 94,00 %
05.04.2026 06:22 14,6 °C 13,3 °C 9,4 °C 75 % 1011,4 hPa 0,0 l/m² 0 min 0 W/m² 29,0 km/h (5 Bft) 100,00 %
05.04.2026 06:24 14,5 °C 13,3 °C 9,4 °C 75 % 1011,6 hPa 0,0 l/m² 0 min 0 W/m² 25,7 km/h (4 Bft) 96,00 %
05.04.2026 06:26 14,4 °C 13,3 °C 9,4 °C 75 % 1011,6 hPa 0,0 l/m² 0 min 0 W/m² 41,8 km/h (6 Bft) 97,87 %
05.04.2026 06:28 14,4 °C 13,3 °C 9,4 °C 75 % 1011,6 hPa 0,0 l/m² 0 min 0 W/m² 19,3 km/h (3 Bft) 97,87 %
05.04.2026 06:30 14,4 °C 13,3 °C 9,4 °C 75 % 1011,5 hPa 0,0 l/m² 0 min 0 W/m² 25,7 km/h (4 Bft) 97,83 %
05.04.2026 06:32 14,3 °C 13,3 °C 9,4 °C 76 % 1011,7 hPa 0,0 l/m² 0 min 0 W/m² 22,5 km/h (4 Bft) 93,62 %
05.04.2026 06:34 14,3 °C 13,3 °C 9,4 °C 76 % 1011,7 hPa 0,0 l/m² 0 min 0 W/m² 29,0 km/h (5 Bft) 97,87 %
05.04.2026 06:36 14,3 °C 13,3 °C 9,4 °C 75 % 1011,6 hPa 0,0 l/m² 0 min 0 W/m² 22,5 km/h (4 Bft) 97,87 %
05.04.2026 06:38 14,3 °C 13,3 °C 9,4 °C 75 % 1011,6 hPa 0,0 l/m² 0 min 0 W/m² 29,0 km/h (5 Bft) 95,74 %
05.04.2026 06:40 14,3 °C 13,3 °C 9,4 °C 75 % 1011,8 hPa 0,0 l/m² 0 min 0 W/m² 19,3 km/h (3 Bft) 98,00 %
05.04.2026 06:42 14,3 °C 13,3 °C 9,4 °C 75 % 1011,7 hPa 0,0 l/m² 0 min 0 W/m² 38,6 km/h (5 Bft) 97,37 %
05.04.2026 06:44 14,3 °C 13,3 °C 8,9 °C 76 % 1011,7 hPa 0,0 l/m² 0 min 0 W/m² 25,7 km/h (4 Bft) 97,87 %
05.04.2026 06:46 14,3 °C 13,3 °C 9,4 °C 76 % 1011,7 hPa 0,0 l/m² 0 min 0 W/m² 25,7 km/h (4 Bft) 98,11 %
05.04.2026 06:48 14,2 °C 13,3 °C 8,9 °C 76 % 1011,8 hPa 0,0 l/m² 0 min 0 W/m² 16,1 km/h (3 Bft) 95,74 %
05.04.2026 06:50 14,2 °C 12,8 °C 8,9 °C 76 % 1011,8 hPa 0,0 l/m² 0 min 0 W/m² 6,4 km/h (2 Bft) 92,11 %
05.04.2026 06:52 14,1 °C 12,8 °C 8,9 °C 76 % 1012,0 hPa 0,0 l/m² 0 min 0 W/m² 19,3 km/h (3 Bft) 94,00 %
05.04.2026 06:54 14,1 °C 12,8 °C 8,9 °C 76 % 1011,9 hPa 0,0 l/m² 0 min 0 W/m² 16,1 km/h (3 Bft) 92,00 %
05.04.2026 06:56 14,1 °C 12,8 °C 8,9 °C 76 % 1011,9 hPa 0,0 l/m² 0 min 0 W/m² 35,4 km/h (5 Bft) 93,62 %
05.04.2026 06:58 14,0 °C 12,8 °C 8,9 °C 76 % 1012,0 hPa 0,0 l/m² 0 min 0 W/m² 29,0 km/h (5 Bft) 96,00 %
05.04.2026 07:00 14,0 °C 12,8 °C 8,9 °C 76 % 1012,0 hPa 0,0 l/m² 0 min 0 W/m² 19,3 km/h (3 Bft) 96,00 %
05.04.2026 07:02 13,9 °C 12,8 °C 8,9 °C 76 % 1012,1 hPa 0,0 l/m² 0 min 0 W/m² 12,9 km/h (3 Bft) 94,74 %
05.04.2026 07:04 13,9 °C 12,8 °C 8,9 °C 76 % 1012,0 hPa 0,0 l/m² 0 min 0 W/m² 12,9 km/h (3 Bft) 98,00 %
05.04.2026 07:06 13,9 °C 12,8 °C 8,9 °C 76 % 1012,1 hPa 0,0 l/m² 0 min 0 W/m² 29,0 km/h (5 Bft) 96,00 %
05.04.2026 07:08 13,9 °C 12,8 °C 8,9 °C 76 % 1012,1 hPa 0,0 l/m² 0 min 0 W/m² 22,5 km/h (4 Bft) 93,62 %
05.04.2026 07:10 13,9 °C 12,8 °C 8,9 °C 76 % 1012,1 hPa 0,0 l/m² 0 min 0 W/m² 19,3 km/h (3 Bft) 93,62 %
05.04.2026 07:12 13,9 °C 12,8 °C 8,9 °C 75 % 1012,0 hPa 0,0 l/m² 0 min 0 W/m² 22,5 km/h (4 Bft) 98,00 %
05.04.2026 07:14 13,9 °C 13,3 °C 8,9 °C 75 % 1012,0 hPa 0,0 l/m² 0 min 0 W/m² 29,0 km/h (5 Bft) 97,14 %
05.04.2026 07:16 13,9 °C 12,8 °C 8,9 °C 75 % 1012,1 hPa 0,0 l/m² 0 min 2 W/m² 19,3 km/h (3 Bft) 96,23 %
05.04.2026 07:18 13,9 °C 13,3 °C 8,9 °C 75 % 1012,2 hPa 0,0 l/m² 0 min 1 W/m² 32,2 km/h (5 Bft) 95,74 %
05.04.2026 07:20 13,9 °C 13,3 °C 8,9 °C 75 % 1012,1 hPa 0,0 l/m² 0 min 5 W/m² 19,3 km/h (3 Bft) 95,92 %
05.04.2026 07:22 13,9 °C 12,8 °C 8,9 °C 75 % 1012,2 hPa 0,0 l/m² 0 min 7 W/m² 16,1 km/h (3 Bft) 94,00 %
05.04.2026 07:24 13,9 °C 12,8 °C 8,9 °C 75 % 1012,3 hPa 0,0 l/m² 0 min 7 W/m² 25,7 km/h (4 Bft) 97,37 %
05.04.2026 07:26 13,9 °C 12,8 °C 8,9 °C 75 % 1012,3 hPa 0,0 l/m² 0 min 8 W/m² 12,9 km/h (3 Bft) 94,00 %
05.04.2026 07:28 13,9 °C 12,8 °C 8,9 °C 75 % 1012,3 hPa 0,0 l/m² 0 min 8 W/m² 19,3 km/h (3 Bft) 94,00 %
05.04.2026 07:30 13,9 °C 12,8 °C 8,9 °C 75 % 1012,3 hPa 0,0 l/m² 0 min 9 W/m² 16,1 km/h (3 Bft) 95,56 %
05.04.2026 07:32 13,9 °C 12,8 °C 8,9 °C 75 % 1012,3 hPa 0,0 l/m² 0 min 12 W/m² 19,3 km/h (3 Bft) 95,74 %
05.04.2026 07:34 13,9 °C 12,8 °C 8,9 °C 75 % 1012,3 hPa 0,0 l/m² 0 min 17 W/m² 29,0 km/h (5 Bft) 98,00 %
05.04.2026 07:36 13,8 °C 12,8 °C 8,9 °C 75 % 1012,4 hPa 0,0 l/m² 0 min 20 W/m² 29,0 km/h (5 Bft) 95,74 %
05.04.2026 07:38 13,8 °C 12,8 °C 8,9 °C 75 % 1012,6 hPa 0,0 l/m² 0 min 21 W/m² 19,3 km/h (3 Bft) 97,87 %
05.04.2026 07:40 13,8 °C 12,8 °C 8,9 °C 75 % 1012,4 hPa 0,0 l/m² 0 min 20 W/m² 22,5 km/h (4 Bft) 97,87 %
05.04.2026 07:42 13,8 °C 12,8 °C 8,9 °C 75 % 1012,5 hPa 0,0 l/m² 0 min 20 W/m² 19,3 km/h (3 Bft) 97,62 %
05.04.2026 07:44 13,8 °C 12,8 °C 8,9 °C 75 % 1012,5 hPa 0,0 l/m² 0 min 23 W/m² 19,3 km/h (3 Bft) 97,87 %
05.04.2026 07:46 13,8 °C 12,8 °C 8,9 °C 75 % 1012,5 hPa 0,0 l/m² 0 min 24 W/m² 35,4 km/h (5 Bft) 95,74 %
05.04.2026 07:48 13,8 °C 12,8 °C 8,9 °C 75 % 1012,6 hPa 0,0 l/m² 0 min 21 W/m² 19,3 km/h (3 Bft) 98,00 %
05.04.2026 07:50 13,8 °C 12,8 °C 8,9 °C 75 % 1012,6 hPa 0,0 l/m² 0 min 20 W/m² 25,7 km/h (4 Bft) 97,87 %
05.04.2026 07:52 13,8 °C 12,8 °C 8,9 °C 76 % 1012,7 hPa 0,0 l/m² 0 min 20 W/m² 12,9 km/h (3 Bft) 97,56 %
05.04.2026 07:54 13,8 °C 12,8 °C 8,9 °C 76 % 1012,7 hPa 0,0 l/m² 0 min 19 W/m² 19,3 km/h (3 Bft) 100,00 %
05.04.2026 07:56 13,8 °C 12,8 °C 8,9 °C 76 % 1012,7 hPa 0,0 l/m² 0 min 21 W/m² 19,3 km/h (3 Bft) 100,00 %
05.04.2026 07:58 13,8 °C 12,8 °C 8,9 °C 76 % 1012,7 hPa 0,0 l/m² 0 min 25 W/m² 19,3 km/h (3 Bft) 100,00 %
05.04.2026 08:00 13,8 °C 12,8 °C 8,9 °C 76 % 1012,9 hPa 0,0 l/m² 0 min 22 W/m² 19,3 km/h (3 Bft) 100,00 %
05.04.2026 08:02 13,7 °C 12,8 °C 8,9 °C 76 % 1012,9 hPa 0,0 l/m² 0 min 14 W/m² 32,2 km/h (5 Bft) 100,00 %
05.04.2026 08:04 13,7 °C 12,8 °C 8,9 °C 76 % 1012,9 hPa 0,0 l/m² 0 min 14 W/m² 25,7 km/h (4 Bft) 97,37 %
05.04.2026 08:06 13,7 °C 12,8 °C 8,9 °C 76 % 1013,0 hPa 0,0 l/m² 0 min 12 W/m² 16,1 km/h (3 Bft) 100,00 %
05.04.2026 08:08 13,7 °C 12,8 °C 8,9 °C 76 % 1013,1 hPa 0,0 l/m² 0 min 11 W/m² 16,1 km/h (3 Bft) 100,00 %
05.04.2026 08:10 13,7 °C 12,8 °C 8,9 °C 76 % 1013,2 hPa 0,0 l/m² 0 min 11 W/m² 12,9 km/h (3 Bft) 100,00 %
05.04.2026 08:12 13,7 °C 12,8 °C 8,9 °C 77 % 1013,3 hPa 0,0 l/m² 0 min 12 W/m² 6,4 km/h (2 Bft) 100,00 %
05.04.2026 08:14 13,7 °C 12,8 °C 8,9 °C 77 % 1013,3 hPa 0,0 l/m² 0 min 11 W/m² 6,4 km/h (2 Bft) 100,00 %
05.04.2026 08:16 13,6 °C 12,8 °C 8,9 °C 77 % 1013,4 hPa 0,0 l/m² 0 min 12 W/m² 19,3 km/h (3 Bft) 100,00 %
05.04.2026 08:18 13,6 °C 12,8 °C 8,9 °C 77 % 1013,4 hPa 0,0 l/m² 0 min 17 W/m² 19,3 km/h (3 Bft) 100,00 %
05.04.2026 08:20 13,5 °C 12,8 °C 8,9 °C 76 % 1013,4 hPa 0,0 l/m² 0 min 23 W/m² 25,7 km/h (4 Bft) 97,37 %
05.04.2026 08:22 13,5 °C 12,8 °C 8,9 °C 76 % 1013,4 hPa 0,0 l/m² 0 min 22 W/m² 29,0 km/h (5 Bft) 100,00 %
05.04.2026 08:24 13,4 °C 12,8 °C 8,9 °C 76 % 1013,5 hPa 0,0 l/m² 0 min 21 W/m² 16,1 km/h (3 Bft) 100,00 %
05.04.2026 08:26 13,4 °C 12,8 °C 8,9 °C 76 % 1013,4 hPa 0,0 l/m² 0 min 36 W/m² 22,5 km/h (4 Bft) 100,00 %
05.04.2026 08:28 13,4 °C 12,8 °C 8,9 °C 76 % 1013,4 hPa 0,0 l/m² 0 min 63 W/m² 25,7 km/h (4 Bft) 100,00 %
05.04.2026 08:30 13,4 °C 12,8 °C 8,9 °C 76 % 1013,3 hPa 0,0 l/m² 0 min 69 W/m² 16,1 km/h (3 Bft) 97,87 %
05.04.2026 08:32 13,4 °C 12,8 °C 8,9 °C 77 % 1013,3 hPa 0,0 l/m² 0 min 73 W/m² 22,5 km/h (4 Bft) 100,00 %
05.04.2026 08:34 13,4 °C 12,8 °C 8,9 °C 77 % 1013,3 hPa 0,0 l/m² 0 min 74 W/m² 22,5 km/h (4 Bft) 100,00 %
05.04.2026 08:36 13,4 °C 12,8 °C 8,9 °C 77 % 1013,3 hPa 0,0 l/m² 0 min 70 W/m² 16,1 km/h (3 Bft) 97,87 %
05.04.2026 08:38 13,4 °C 12,8 °C 8,9 °C 77 % 1013,4 hPa 0,0 l/m² 0 min 71 W/m² 12,9 km/h (3 Bft) 100,00 %
05.04.2026 08:40 13,4 °C 12,8 °C 8,9 °C 77 % 1013,3 hPa 0,0 l/m² 0 min 72 W/m² 9,7 km/h (2 Bft) 95,74 %
05.04.2026 08:42 13,4 °C 12,8 °C 8,9 °C 77 % 1013,3 hPa 0,0 l/m² 0 min 79 W/m² 29,0 km/h (5 Bft) 100,00 %
05.04.2026 08:44 13,4 °C 12,8 °C 8,9 °C 77 % 1013,3 hPa 0,0 l/m² 0 min 81 W/m² 35,4 km/h (5 Bft) 100,00 %
05.04.2026 08:46 13,4 °C 12,8 °C 8,9 °C 77 % 1013,3 hPa 0,0 l/m² 0 min 86 W/m² 22,5 km/h (4 Bft) 100,00 %
05.04.2026 08:48 13,4 °C 12,8 °C 8,9 °C 77 % 1013,4 hPa 0,0 l/m² 0 min 90 W/m² 22,5 km/h (4 Bft) 100,00 %
05.04.2026 08:50 13,4 °C 12,8 °C 8,9 °C 77 % 1013,4 hPa 0,0 l/m² 0 min 90 W/m² 16,1 km/h (3 Bft) 100,00 %
05.04.2026 08:52 13,3 °C 12,8 °C 8,9 °C 77 % 1013,4 hPa 0,0 l/m² 0 min 92 W/m² 25,7 km/h (4 Bft) 97,87 %
05.04.2026 08:54 13,3 °C 12,8 °C 8,9 °C 77 % 1013,5 hPa 0,0 l/m² 0 min 97 W/m² 35,4 km/h (5 Bft) 97,87 %
05.04.2026 08:56 13,3 °C 12,8 °C 8,9 °C 77 % 1013,5 hPa 0,0 l/m² 0 min 100 W/m² 22,5 km/h (4 Bft) 100,00 %
05.04.2026 08:58 13,3 °C 12,8 °C 8,9 °C 77 % 1013,6 hPa 0,0 l/m² 0 min 109 W/m² 22,5 km/h (4 Bft) 98,00 %
05.04.2026 09:00 13,3 °C 12,8 °C 8,9 °C 77 % 1013,5 hPa 0,0 l/m² 0 min 115 W/m² 25,7 km/h (4 Bft) 100,00 %
05.04.2026 09:02 13,4 °C 13,3 °C 8,9 °C 77 % 1013,6 hPa 0,0 l/m² 0 min 125 W/m² 25,7 km/h (4 Bft) 100,00 %
05.04.2026 09:04 13,4 °C 13,3 °C 8,9 °C 77 % 1013,5 hPa 0,0 l/m² 0 min 143 W/m² 22,5 km/h (4 Bft) 97,87 %
05.04.2026 09:06 13,4 °C 13,3 °C 9,4 °C 77 % 1013,5 hPa 0,0 l/m² 0 min 151 W/m² 19,3 km/h (3 Bft) 96,55 %
05.04.2026 09:08 13,4 °C 13,3 °C 9,4 °C 77 % 1013,6 hPa 0,0 l/m² 0 min 136 W/m² 29,0 km/h (5 Bft) 100,00 %
05.04.2026 09:10 13,5 °C 13,3 °C 9,4 °C 77 % 1013,6 hPa 0,0 l/m² 0 min 106 W/m² 16,1 km/h (3 Bft) 93,62 %
05.04.2026 09:12 13,5 °C 13,3 °C 9,4 °C 77 % 1013,7 hPa 0,0 l/m² 0 min 85 W/m² 25,7 km/h (4 Bft) 95,74 %
05.04.2026 09:14 13,5 °C 13,3 °C 8,9 °C 77 % 1013,7 hPa 0,0 l/m² 0 min 77 W/m² 29,0 km/h (5 Bft) 95,65 %
05.04.2026 09:16 13,5 °C 13,3 °C 8,9 °C 77 % 1013,7 hPa 0,0 l/m² 0 min 100 W/m² 22,5 km/h (4 Bft) 96,23 %
05.04.2026 09:18 13,5 °C 13,3 °C 8,9 °C 77 % 1013,7 hPa 0,0 l/m² 0 min 92 W/m² 16,1 km/h (3 Bft) 95,74 %
05.04.2026 09:20 13,5 °C 12,8 °C 8,9 °C 77 % 1013,7 hPa 0,0 l/m² 0 min 79 W/m² 29,0 km/h (5 Bft) 95,74 %
05.04.2026 09:22 13,5 °C 12,8 °C 8,9 °C 77 % 1013,7 hPa 0,0 l/m² 0 min 68 W/m² 35,4 km/h (5 Bft) 95,74 %
05.04.2026 09:24 13,5 °C 12,8 °C 8,9 °C 77 % 1013,7 hPa 0,0 l/m² 0 min 69 W/m² 29,0 km/h (5 Bft) 96,00 %
05.04.2026 09:26 13,4 °C 12,8 °C 8,9 °C 77 % 1013,7 hPa 0,0 l/m² 0 min 76 W/m² 22,5 km/h (4 Bft) 94,29 %
05.04.2026 09:28 13,4 °C 12,8 °C 8,9 °C 77 % 1013,7 hPa 0,0 l/m² 0 min 95 W/m² 38,6 km/h (5 Bft) 95,74 %
05.04.2026 09:30 13,4 °C 12,8 °C 8,9 °C 78 % 1013,8 hPa 0,0 l/m² 0 min 114 W/m² 25,7 km/h (4 Bft) 96,23 %
05.04.2026 09:32 13,4 °C 13,3 °C 8,9 °C 78 % 1013,7 hPa 0,0 l/m² 0 min 140 W/m² 22,5 km/h (4 Bft) 95,12 %
05.04.2026 09:34 13,4 °C 13,3 °C 8,9 °C 78 % 1013,8 hPa 0,0 l/m² 0 min 108 W/m² 35,4 km/h (5 Bft) 92,00 %
05.04.2026 09:36 13,4 °C 13,3 °C 8,9 °C 77 % 1013,8 hPa 0,0 l/m² 0 min 88 W/m² 32,2 km/h (5 Bft) 93,62 %
05.04.2026 09:38 13,4 °C 12,8 °C 8,9 °C 78 % 1013,9 hPa 0,0 l/m² 0 min 97 W/m² 32,2 km/h (5 Bft) 93,62 %
05.04.2026 09:40 13,4 °C 12,8 °C 8,9 °C 78 % 1013,9 hPa 0,0 l/m² 0 min 62 W/m² 32,2 km/h (5 Bft) 90,00 %
05.04.2026 09:42 13,4 °C 12,8 °C 8,9 °C 78 % 1014,0 hPa 0,0 l/m² 0 min 50 W/m² 45,1 km/h (6 Bft) 89,36 %
05.04.2026 09:44 13,4 °C 12,8 °C 8,9 °C 78 % 1013,9 hPa 0,0 l/m² 0 min 54 W/m² 19,3 km/h (3 Bft) 95,74 %
05.04.2026 09:46 13,4 °C 12,8 °C 8,9 °C 78 % 1014,0 hPa 0,0 l/m² 0 min 36 W/m² 25,7 km/h (4 Bft) 95,12 %
05.04.2026 09:48 13,3 °C 12,8 °C 8,9 °C 78 % 1014,0 hPa 0,0 l/m² 0 min 32 W/m² 19,3 km/h (3 Bft) 93,62 %
05.04.2026 09:50 13,3 °C 12,8 °C 8,9 °C 78 % 1014,1 hPa 0,0 l/m² 0 min 39 W/m² 19,3 km/h (3 Bft) 95,74 %
05.04.2026 09:52 13,3 °C 12,2 °C 8,9 °C 79 % 1014,2 hPa 0,0 l/m² 0 min 38 W/m² 29,0 km/h (5 Bft) 96,15 %
05.04.2026 09:54 13,2 °C 12,2 °C 8,3 °C 79 % 1014,3 hPa 0,0 l/m² 0 min 32 W/m² 25,7 km/h (4 Bft) 94,00 %
05.04.2026 09:56 13,1 °C 12,2 °C 8,3 °C 80 % 1014,4 hPa 0,0 l/m² 0 min 30 W/m² 16,1 km/h (3 Bft) 97,14 %
05.04.2026 09:58 13,1 °C 12,2 °C 8,3 °C 81 % 1014,5 hPa 0,0 l/m² 0 min 26 W/m² 19,3 km/h (3 Bft) 98,21 %
05.04.2026 10:00 12,9 °C 11,7 °C 7,8 °C 81 % 1014,6 hPa 0,0 l/m² 0 min 28 W/m² 32,2 km/h (5 Bft) 97,87 %
05.04.2026 10:02 12,8 °C 11,7 °C 7,8 °C 83 % 1014,6 hPa 0,0 l/m² 0 min 54 W/m² 22,5 km/h (4 Bft) 96,00 %
05.04.2026 10:04 12,6 °C 11,7 °C 7,2 °C 84 % 1014,7 hPa 0,0 l/m² 0 min 79 W/m² 19,3 km/h (3 Bft) 97,87 %
05.04.2026 10:06 12,4 °C 11,1 °C 7,2 °C 85 % 1014,8 hPa 0,0 l/m² 0 min 44 W/m² 22,5 km/h (4 Bft) 98,04 %
05.04.2026 10:08 12,3 °C 11,1 °C 6,7 °C 86 % 1014,8 hPa 0,0 l/m² 0 min 40 W/m² 25,7 km/h (4 Bft) 97,37 %
05.04.2026 10:10 12,1 °C 11,1 °C 6,7 °C 87 % 1014,8 hPa 0,0 l/m² 0 min 52 W/m² 19,3 km/h (3 Bft) 98,00 %
05.04.2026 10:12 12,0 °C 11,1 °C 6,7 °C 88 % 1014,8 hPa 0,0 l/m² 0 min 91 W/m² 19,3 km/h (3 Bft) 97,87 %
05.04.2026 10:14 11,9 °C 11,1 °C 6,7 °C 88 % 1014,8 hPa 0,0 l/m² 0 min 130 W/m² 16,1 km/h (3 Bft) 97,37 %
05.04.2026 10:16 11,9 °C 11,7 °C 7,2 °C 88 % 1014,9 hPa 0,0 l/m² 0 min 140 W/m² 12,9 km/h (3 Bft) 98,00 %
05.04.2026 10:18 11,9 °C 11,7 °C 7,2 °C 89 % 1014,9 hPa 0,0 l/m² 0 min 151 W/m² 16,1 km/h (3 Bft) 98,00 %
05.04.2026 10:20 11,9 °C 11,7 °C 7,2 °C 89 % 1015,0 hPa 0,0 l/m² 0 min 170 W/m² 22,5 km/h (4 Bft) 98,00 %
05.04.2026 10:22 11,8 °C 11,7 °C 7,2 °C 89 % 1015,1 hPa 0,0 l/m² 0 min 153 W/m² 38,6 km/h (5 Bft) 100,00 %
05.04.2026 10:24 11,9 °C 12,2 °C 7,8 °C 89 % 1015,1 hPa 0,0 l/m² 0 min 162 W/m² 25,7 km/h (4 Bft) 100,00 %
05.04.2026 10:26 11,9 °C 12,2 °C 7,8 °C 89 % 1015,1 hPa 0,0 l/m² 0 min 167 W/m² 16,1 km/h (3 Bft) 53,49 %
05.04.2026 10:28 11,9 °C 12,2 °C 7,8 °C 89 % 1015,2 hPa 0,0 l/m² 0 min 195 W/m² 22,5 km/h (4 Bft) 95,74 %
05.04.2026 10:30 11,9 °C 12,8 °C 8,3 °C 88 % 1015,2 hPa 0,0 l/m² 0 min 240 W/m² 22,5 km/h (4 Bft) 100,00 %
05.04.2026 10:32 11,9 °C 12,8 °C 8,3 °C 88 % 1015,2 hPa 0,0 l/m² 2 min 270 W/m² 22,5 km/h (4 Bft) 97,83 %
05.04.2026 10:34 12,0 °C 13,9 °C 8,9 °C 88 % 1015,1 hPa 0,0 l/m² 2 min 314 W/m² 25,7 km/h (4 Bft) 100,00 %
05.04.2026 10:36 12,1 °C 13,9 °C 9,4 °C 87 % 1015,3 hPa 0,0 l/m² 2 min 290 W/m² 32,2 km/h (5 Bft) 100,00 %
05.04.2026 10:38 12,2 °C 13,9 °C 9,4 °C 87 % 1015,2 hPa 0,0 l/m² 0 min 255 W/m² 19,3 km/h (3 Bft) 100,00 %
05.04.2026 10:40 12,3 °C 13,9 °C 9,4 °C 85 % 1015,3 hPa 0,0 l/m² 0 min 246 W/m² 25,7 km/h (4 Bft) 100,00 %
05.04.2026 10:42 12,4 °C 13,9 °C 9,4 °C 85 % 1015,3 hPa 0,0 l/m² 0 min 249 W/m² 19,3 km/h (3 Bft) 100,00 %
05.04.2026 10:44 12,4 °C 13,9 °C 9,4 °C 84 % 1015,3 hPa 0,0 l/m² 0 min 262 W/m² 22,5 km/h (4 Bft) 97,37 %
05.04.2026 10:46 12,4 °C 13,9 °C 9,4 °C 83 % 1015,3 hPa 0,0 l/m² 2 min 293 W/m² 32,2 km/h (5 Bft) 100,00 %
05.04.2026 10:48 12,5 °C 13,3 °C 9,4 °C 82 % 1015,4 hPa 0,0 l/m² 2 min 293 W/m² 22,5 km/h (4 Bft) 100,00 %
05.04.2026 10:50 12,5 °C 13,9 °C 9,4 °C 81 % 1015,4 hPa 0,0 l/m² 2 min 363 W/m² 25,7 km/h (4 Bft) 100,00 %
05.04.2026 10:52 12,6 °C 13,9 °C 10,0 °C 81 % 1015,4 hPa 0,0 l/m² 2 min 305 W/m² 25,7 km/h (4 Bft) 100,00 %
05.04.2026 10:54 12,8 °C 14,4 °C 10,0 °C 81 % 1015,4 hPa 0,0 l/m² 2 min 280 W/m² 25,7 km/h (4 Bft) 100,00 %
05.04.2026 10:56 12,9 °C 14,4 °C 10,6 °C 80 % 1015,5 hPa 0,0 l/m² 2 min 310 W/m² 35,4 km/h (5 Bft) 100,00 %
05.04.2026 10:58 12,9 °C 14,4 °C 10,6 °C 79 % 1015,6 hPa 0,0 l/m² 2 min 417 W/m² 19,3 km/h (3 Bft) 100,00 %
05.04.2026 11:00 13,1 °C 14,4 °C 10,6 °C 78 % 1015,6 hPa 0,0 l/m² 2 min 460 W/m² 16,1 km/h (3 Bft) 100,00 %
05.04.2026 11:02 13,1 °C 14,4 °C 10,0 °C 78 % 1015,6 hPa 0,0 l/m² 2 min 306 W/m² 22,5 km/h (4 Bft) 100,00 %
05.04.2026 11:04 13,1 °C 13,9 °C 10,0 °C 77 % 1015,6 hPa 0,0 l/m² 2 min 292 W/m² 32,2 km/h (5 Bft) 100,00 %
05.04.2026 11:06 13,1 °C 13,3 °C 9,4 °C 77 % 1015,7 hPa 0,0 l/m² 0 min 260 W/m² 25,7 km/h (4 Bft) 100,00 %
05.04.2026 11:08 13,1 °C 13,3 °C 9,4 °C 77 % 1015,7 hPa 0,0 l/m² 0 min 226 W/m² 22,5 km/h (4 Bft) 100,00 %
05.04.2026 11:10 13,0 °C 13,3 °C 9,4 °C 77 % 1015,7 hPa 0,0 l/m² 0 min 238 W/m² 22,5 km/h (4 Bft) 97,87 %
05.04.2026 11:12 13,0 °C 13,3 °C 9,4 °C 77 % 1015,7 hPa 0,0 l/m² 0 min 230 W/m² 25,7 km/h (4 Bft) 95,74 %
05.04.2026 11:14 12,9 °C 13,3 °C 9,4 °C 77 % 1015,7 hPa 0,0 l/m² 0 min 255 W/m² 22,5 km/h (4 Bft) 97,87 %
05.04.2026 11:16 12,9 °C 13,3 °C 9,4 °C 77 % 1015,8 hPa 0,0 l/m² 0 min 276 W/m² 32,2 km/h (5 Bft) 97,87 %
05.04.2026 11:18 12,8 °C 13,3 °C 9,4 °C 77 % 1015,9 hPa 0,0 l/m² 0 min 279 W/m² 25,7 km/h (4 Bft) 98,00 %
05.04.2026 11:20 12,9 °C 13,3 °C 9,4 °C 77 % 1015,9 hPa 0,0 l/m² 2 min 307 W/m² 25,7 km/h (4 Bft) 95,74 %
05.04.2026 11:22 12,9 °C 13,9 °C 9,4 °C 77 % 1016,1 hPa 0,0 l/m² 2 min 335 W/m² 32,2 km/h (5 Bft) 98,00 %
05.04.2026 11:24 12,9 °C 13,9 °C 9,4 °C 77 % 1016,1 hPa 0,0 l/m² 2 min 314 W/m² 38,6 km/h (5 Bft) 97,37 %
05.04.2026 11:26 12,9 °C 13,3 °C 9,4 °C 77 % 1016,0 hPa 0,0 l/m² 0 min 253 W/m² 22,5 km/h (4 Bft) 95,74 %
05.04.2026 11:28 12,9 °C 13,3 °C 9,4 °C 76 % 1016,2 hPa 0,0 l/m² 0 min 235 W/m² 22,5 km/h (4 Bft) 97,87 %
05.04.2026 11:30 12,8 °C 13,3 °C 9,4 °C 76 % 1016,2 hPa 0,0 l/m² 0 min 230 W/m² 32,2 km/h (5 Bft) 97,87 %
05.04.2026 11:32 12,8 °C 13,3 °C 9,4 °C 76 % 1016,2 hPa 0,0 l/m² 0 min 251 W/m² 29,0 km/h (5 Bft) 97,87 %
05.04.2026 11:34 12,8 °C 13,3 °C 9,4 °C 76 % 1016,3 hPa 0,0 l/m² 0 min 261 W/m² 19,3 km/h (3 Bft) 97,87 %
05.04.2026 11:36 12,8 °C 13,3 °C 9,4 °C 76 % 1016,3 hPa 0,0 l/m² 0 min 246 W/m² 16,1 km/h (3 Bft) 97,87 %
05.04.2026 11:38 12,8 °C 13,3 °C 9,4 °C 75 % 1016,3 hPa 0,0 l/m² 0 min 246 W/m² 22,5 km/h (4 Bft) 96,30 %
05.04.2026 11:40 12,8 °C 13,3 °C 9,4 °C 74 % 1016,4 hPa 0,0 l/m² 0 min 297 W/m² 25,7 km/h (4 Bft) 97,87 %
05.04.2026 11:42 12,8 °C 13,9 °C 9,4 °C 74 % 1016,3 hPa 0,0 l/m² 0 min 303 W/m² 25,7 km/h (4 Bft) 97,87 %
05.04.2026 11:44 12,8 °C 13,3 °C 9,4 °C 73 % 1016,4 hPa 0,0 l/m² 0 min 286 W/m² 25,7 km/h (4 Bft) 100,00 %
05.04.2026 11:46 12,8 °C 13,9 °C 9,4 °C 73 % 1016,4 hPa 0,0 l/m² 2 min 327 W/m² 38,6 km/h (5 Bft) 100,00 %
05.04.2026 11:48 12,9 °C 13,9 °C 9,4 °C 73 % 1016,5 hPa 0,0 l/m² 2 min 356 W/m² 25,7 km/h (4 Bft) 100,00 %
05.04.2026 11:50 12,9 °C 14,4 °C 10,0 °C 73 % 1016,5 hPa 0,0 l/m² 2 min 377 W/m² 19,3 km/h (3 Bft) 100,00 %
05.04.2026 11:52 13,1 °C 14,4 °C 10,0 °C 73 % 1016,5 hPa 0,0 l/m² 2 min 373 W/m² 29,0 km/h (5 Bft) 100,00 %
05.04.2026 11:54 13,1 °C 14,4 °C 10,0 °C 72 % 1016,5 hPa 0,0 l/m² 2 min 361 W/m² 16,1 km/h (3 Bft) 100,00 %
05.04.2026 11:56 13,1 °C 14,4 °C 10,0 °C 71 % 1016,6 hPa 0,0 l/m² 2 min 360 W/m² 29,0 km/h (5 Bft) 100,00 %
05.04.2026 11:58 13,2 °C 15,0 °C 10,6 °C 71 % 1016,6 hPa 0,0 l/m² 2 min 391 W/m² 22,5 km/h (4 Bft) 100,00 %
05.04.2026 12:00 13,2 °C 15,0 °C 10,6 °C 71 % 1016,7 hPa 0,0 l/m² 2 min 373 W/m² 29,0 km/h (5 Bft) 100,00 %
05.04.2026 12:02 13,3 °C 15,0 °C 10,6 °C 71 % 1016,6 hPa 0,0 l/m² 2 min 391 W/m² 25,7 km/h (4 Bft) 100,00 %
05.04.2026 12:04 13,3 °C 15,0 °C 10,6 °C 71 % 1016,7 hPa 0,0 l/m² 2 min 388 W/m² 29,0 km/h (5 Bft) 100,00 %
05.04.2026 12:06 13,3 °C 15,0 °C 10,6 °C 71 % 1016,7 hPa 0,0 l/m² 2 min 397 W/m² 25,7 km/h (4 Bft) 98,15 %
05.04.2026 12:08 13,4 °C 15,0 °C 10,6 °C 71 % 1016,7 hPa 0,0 l/m² 2 min 370 W/m² 29,0 km/h (5 Bft) 97,62 %
05.04.2026 12:10 13,4 °C 15,0 °C 10,6 °C 70 % 1016,7 hPa 0,0 l/m² 2 min 425 W/m² 19,3 km/h (3 Bft) 100,00 %
05.04.2026 12:12 13,4 °C 15,0 °C 10,6 °C 69 % 1016,7 hPa 0,0 l/m² 2 min 418 W/m² 29,0 km/h (5 Bft) 100,00 %
05.04.2026 12:14 13,4 °C 15,0 °C 10,6 °C 70 % 1016,8 hPa 0,0 l/m² 2 min 352 W/m² 25,7 km/h (4 Bft) 97,87 %
05.04.2026 12:16 13,4 °C 15,0 °C 10,6 °C 69 % 1016,8 hPa 0,0 l/m² 2 min 387 W/m² 22,5 km/h (4 Bft) 97,87 %
05.04.2026 12:18 13,5 °C 15,6 °C 10,6 °C 70 % 1016,8 hPa 0,0 l/m² 2 min 463 W/m² 19,3 km/h (3 Bft) 95,12 %
05.04.2026 12:20 13,6 °C 15,6 °C 11,1 °C 70 % 1016,9 hPa 0,0 l/m² 2 min 512 W/m² 22,5 km/h (4 Bft) 97,87 %
05.04.2026 12:22 13,6 °C 15,0 °C 11,1 °C 70 % 1016,9 hPa 0,0 l/m² 2 min 408 W/m² 22,5 km/h (4 Bft) 97,87 %
05.04.2026 12:24 13,7 °C 15,0 °C 11,1 °C 70 % 1017,0 hPa 0,0 l/m² 2 min 393 W/m² 22,5 km/h (4 Bft) 97,87 %
05.04.2026 12:26 13,7 °C 15,6 °C 11,1 °C 70 % 1017,0 hPa 0,0 l/m² 2 min 397 W/m² 25,7 km/h (4 Bft) 95,74 %
05.04.2026 12:28 13,8 °C 15,6 °C 11,1 °C 70 % 1017,0 hPa 0,0 l/m² 2 min 439 W/m² 22,5 km/h (4 Bft) 93,48 %
05.04.2026 12:30 13,8 °C 16,1 °C 11,1 °C 70 % 1017,0 hPa 0,0 l/m² 2 min 482 W/m² 22,5 km/h (4 Bft) 95,74 %
05.04.2026 12:32 14,0 °C 16,7 °C 12,2 °C 70 % 1017,0 hPa 0,0 l/m² 2 min 523 W/m² 19,3 km/h (3 Bft) 96,30 %
05.04.2026 12:34 14,1 °C 16,7 °C 12,2 °C 69 % 1017,0 hPa 0,0 l/m² 2 min 507 W/m² 22,5 km/h (4 Bft) 95,74 %
05.04.2026 12:36 14,1 °C 16,7 °C 12,2 °C 69 % 1017,0 hPa 0,0 l/m² 2 min 459 W/m² 19,3 km/h (3 Bft) 95,12 %
05.04.2026 12:38 14,2 °C 16,1 °C 12,2 °C 68 % 1017,1 hPa 0,0 l/m² 2 min 434 W/m² 35,4 km/h (5 Bft) 95,74 %
05.04.2026 12:40 14,1 °C 16,1 °C 11,7 °C 67 % 1017,1 hPa 0,0 l/m² 2 min 437 W/m² 22,5 km/h (4 Bft) 95,74 %
05.04.2026 12:42 14,1 °C 16,1 °C 11,7 °C 67 % 1017,1 hPa 0,0 l/m² 2 min 502 W/m² 25,7 km/h (4 Bft) 91,49 %
05.04.2026 12:44 14,1 °C 15,6 °C 11,7 °C 66 % 1017,1 hPa 0,0 l/m² 2 min 405 W/m² 22,5 km/h (4 Bft) 95,74 %
05.04.2026 12:46 14,0 °C 15,0 °C 11,1 °C 67 % 1017,1 hPa 0,0 l/m² 0 min 311 W/m² 29,0 km/h (5 Bft) 95,12 %
05.04.2026 12:48 13,9 °C 14,4 °C 11,1 °C 67 % 1017,1 hPa 0,0 l/m² 0 min 287 W/m² 22,5 km/h (4 Bft) 94,00 %
05.04.2026 12:50 13,9 °C 14,4 °C 10,6 °C 67 % 1017,1 hPa 0,0 l/m² 0 min 296 W/m² 48,3 km/h (6 Bft) 95,74 %
05.04.2026 12:52 13,8 °C 14,4 °C 10,6 °C 68 % 1017,1 hPa 0,0 l/m² 0 min 314 W/m² 22,5 km/h (4 Bft) 95,74 %
05.04.2026 12:54 13,8 °C 14,4 °C 10,6 °C 68 % 1017,1 hPa 0,0 l/m² 0 min 336 W/m² 25,7 km/h (4 Bft) 97,87 %
05.04.2026 12:56 13,8 °C 14,4 °C 10,6 °C 68 % 1017,1 hPa 0,0 l/m² 0 min 338 W/m² 19,3 km/h (3 Bft) 97,87 %
05.04.2026 12:58 13,8 °C 15,0 °C 11,1 °C 68 % 1017,2 hPa 0,0 l/m² 2 min 411 W/m² 16,1 km/h (3 Bft) 96,15 %
05.04.2026 13:00 13,9 °C 15,0 °C 11,1 °C 69 % 1017,3 hPa 0,0 l/m² 0 min 313 W/m² 25,7 km/h (4 Bft) 97,62 %
05.04.2026 13:02 13,9 °C 14,4 °C 10,6 °C 68 % 1017,2 hPa 0,0 l/m² 0 min 267 W/m² 16,1 km/h (3 Bft) 98,00 %
05.04.2026 13:04 13,9 °C 14,4 °C 10,6 °C 69 % 1017,2 hPa 0,0 l/m² 0 min 302 W/m² 19,3 km/h (3 Bft) 97,87 %
05.04.2026 13:06 13,9 °C 14,4 °C 10,6 °C 68 % 1017,2 hPa 0,0 l/m² 0 min 313 W/m² 35,4 km/h (5 Bft) 96,00 %
05.04.2026 13:08 13,9 °C 14,4 °C 10,6 °C 68 % 1017,2 hPa 0,0 l/m² 0 min 307 W/m² 25,7 km/h (4 Bft) 98,00 %
05.04.2026 13:10 13,8 °C 14,4 °C 10,6 °C 69 % 1017,1 hPa 0,0 l/m² 0 min 294 W/m² 25,7 km/h (4 Bft) 93,62 %
05.04.2026 13:12 13,8 °C 14,4 °C 10,6 °C 69 % 1017,2 hPa 0,0 l/m² 0 min 269 W/m² 25,7 km/h (4 Bft) 95,74 %
05.04.2026 13:14 13,8 °C 13,9 °C 10,6 °C 69 % 1017,2 hPa 0,0 l/m² 0 min 249 W/m² 22,5 km/h (4 Bft) 95,74 %
05.04.2026 13:16 13,8 °C 13,9 °C 10,6 °C 70 % 1017,3 hPa 0,0 l/m² 0 min 246 W/m² 22,5 km/h (4 Bft) 95,74 %
05.04.2026 13:18 13,7 °C 13,9 °C 10,0 °C 70 % 1017,2 hPa 0,0 l/m² 0 min 234 W/m² 35,4 km/h (5 Bft) 93,62 %
05.04.2026 13:20 13,7 °C 13,9 °C 10,0 °C 70 % 1017,3 hPa 0,0 l/m² 0 min 212 W/m² 19,3 km/h (3 Bft) 95,74 %
05.04.2026 13:22 13,7 °C 13,9 °C 10,0 °C 70 % 1017,3 hPa 0,0 l/m² 0 min 187 W/m² 19,3 km/h (3 Bft) 97,14 %
05.04.2026 13:24 13,6 °C 13,9 °C 10,0 °C 69 % 1017,3 hPa 0,0 l/m² 0 min 185 W/m² 25,7 km/h (4 Bft) 93,62 %
05.04.2026 13:26 13,6 °C 13,9 °C 10,0 °C 69 % 1017,4 hPa 0,0 l/m² 0 min 205 W/m² 32,2 km/h (5 Bft) 94,00 %
05.04.2026 13:28 13,6 °C 13,9 °C 10,0 °C 69 % 1017,4 hPa 0,0 l/m² 0 min 175 W/m² 22,5 km/h (4 Bft) 93,62 %
05.04.2026 13:30 13,6 °C 13,9 °C 10,0 °C 68 % 1017,4 hPa 0,0 l/m² 0 min 217 W/m² 25,7 km/h (4 Bft) 95,92 %
05.04.2026 13:32 13,6 °C 13,9 °C 10,0 °C 68 % 1017,5 hPa 0,0 l/m² 0 min 291 W/m² 29,0 km/h (5 Bft) 95,74 %
05.04.2026 13:34 13,6 °C 14,4 °C 10,0 °C 69 % 1017,6 hPa 0,0 l/m² 0 min 286 W/m² 19,3 km/h (3 Bft) 96,00 %
05.04.2026 13:36 13,6 °C 14,4 °C 10,0 °C 69 % 1017,5 hPa 0,0 l/m² 0 min 256 W/m² 19,3 km/h (3 Bft) 97,37 %
05.04.2026 13:38 13,6 °C 14,4 °C 10,6 °C 68 % 1017,6 hPa 0,0 l/m² 0 min 243 W/m² 16,1 km/h (3 Bft) 95,74 %
05.04.2026 13:40 13,6 °C 13,9 °C 10,0 °C 68 % 1017,6 hPa 0,0 l/m² 0 min 245 W/m² 19,3 km/h (3 Bft) 96,00 %
05.04.2026 13:42 13,6 °C 13,9 °C 10,0 °C 67 % 1017,6 hPa 0,0 l/m² 0 min 266 W/m² 32,2 km/h (5 Bft) 97,87 %
05.04.2026 13:44 13,6 °C 14,4 °C 10,0 °C 67 % 1017,7 hPa 0,0 l/m² 0 min 320 W/m² 19,3 km/h (3 Bft) 96,00 %
05.04.2026 13:46 13,7 °C 14,4 °C 10,6 °C 67 % 1017,7 hPa 0,0 l/m² 2 min 351 W/m² 22,5 km/h (4 Bft) 95,12 %
05.04.2026 13:48 13,7 °C 14,4 °C 10,6 °C 67 % 1017,6 hPa 0,0 l/m² 0 min 319 W/m² 22,5 km/h (4 Bft) 98,00 %
05.04.2026 13:50 13,7 °C 14,4 °C 10,6 °C 67 % 1017,7 hPa 0,0 l/m² 0 min 302 W/m² 25,7 km/h (4 Bft) 95,74 %
05.04.2026 13:52 13,7 °C 15,0 °C 10,6 °C 67 % 1017,7 hPa 0,0 l/m² 0 min 337 W/m² 19,3 km/h (3 Bft) 97,87 %
05.04.2026 13:54 13,8 °C 15,0 °C 10,6 °C 68 % 1017,7 hPa 0,0 l/m² 2 min 373 W/m² 16,1 km/h (3 Bft) 95,74 %
05.04.2026 13:56 13,9 °C 15,0 °C 10,6 °C 67 % 1017,7 hPa 0,0 l/m² 2 min 400 W/m² 29,0 km/h (5 Bft) 100,00 %
05.04.2026 13:58 13,9 °C 15,0 °C 10,6 °C 65 % 1017,6 hPa 0,0 l/m² 2 min 379 W/m² 35,4 km/h (5 Bft) 100,00 %
05.04.2026 14:00 13,9 °C 15,0 °C 10,6 °C 65 % 1017,6 hPa 0,0 l/m² 2 min 368 W/m² 12,9 km/h (3 Bft) 44,44 %
05.04.2026 14:02 14,1 °C 15,6 °C 11,1 °C 66 % 1017,7 hPa 0,0 l/m² 2 min 387 W/m² 16,1 km/h (3 Bft) 100,00 %
05.04.2026 14:04 14,1 °C 15,6 °C 11,1 °C 65 % 1017,7 hPa 0,0 l/m² 2 min 455 W/m² 35,4 km/h (5 Bft) 97,87 %
05.04.2026 14:06 14,2 °C 16,1 °C 11,1 °C 64 % 1017,7 hPa 0,0 l/m² 2 min 486 W/m² 25,7 km/h (4 Bft) 100,00 %
05.04.2026 14:08 14,3 °C 15,6 °C 11,1 °C 65 % 1017,7 hPa 0,0 l/m² 2 min 362 W/m² 19,3 km/h (3 Bft) 100,00 %
05.04.2026 14:10 14,2 °C 15,0 °C 11,1 °C 64 % 1017,7 hPa 0,0 l/m² 0 min 336 W/m² 35,4 km/h (5 Bft) 100,00 %
05.04.2026 14:12 14,2 °C 15,0 °C 10,6 °C 64 % 1017,8 hPa 0,0 l/m² 0 min 280 W/m² 16,1 km/h (3 Bft) 100,00 %
05.04.2026 14:14 14,2 °C 14,4 °C 10,6 °C 65 % 1017,8 hPa 0,0 l/m² 0 min 264 W/m² 16,1 km/h (3 Bft) 100,00 %
05.04.2026 14:16 14,1 °C 13,9 °C 10,6 °C 64 % 1017,8 hPa 0,0 l/m² 0 min 200 W/m² 25,7 km/h (4 Bft) 100,00 %
05.04.2026 14:18 13,9 °C 13,9 °C 10,0 °C 64 % 1017,8 hPa 0,0 l/m² 0 min 145 W/m² 32,2 km/h (5 Bft) 100,00 %
05.04.2026 14:20 13,8 °C 13,3 °C 10,0 °C 65 % 1017,9 hPa 0,0 l/m² 0 min 121 W/m² 22,5 km/h (4 Bft) 97,87 %
05.04.2026 14:22 13,8 °C 13,3 °C 9,4 °C 66 % 1018,0 hPa 0,0 l/m² 0 min 102 W/m² 29,0 km/h (5 Bft) 100,00 %
05.04.2026 14:24 13,7 °C 12,8 °C 8,9 °C 67 % 1018,2 hPa 0,0 l/m² 0 min 106 W/m² 32,2 km/h (5 Bft) 100,00 %
05.04.2026 14:26 13,4 °C 11,1 °C 7,2 °C 71 % 1018,4 hPa 0,0 l/m² 0 min 139 W/m² 32,2 km/h (5 Bft) 100,00 %
05.04.2026 14:28 13,1 °C 11,1 °C 6,7 °C 75 % 1018,3 hPa 0,0 l/m² 0 min 159 W/m² 22,5 km/h (4 Bft) 100,00 %
05.04.2026 14:30 12,9 °C 11,1 °C 6,7 °C 77 % 1018,4 hPa 0,0 l/m² 0 min 186 W/m² 32,2 km/h (5 Bft) 100,00 %
05.04.2026 14:32 12,7 °C 11,7 °C 6,7 °C 79 % 1018,3 hPa 0,0 l/m² 0 min 281 W/m² 19,3 km/h (3 Bft) 100,00 %
05.04.2026 14:34 12,5 °C 12,2 °C 7,2 °C 80 % 1018,3 hPa 0,0 l/m² 2 min 339 W/m² 19,3 km/h (3 Bft) 100,00 %
05.04.2026 14:36 12,4 °C 12,8 °C 7,2 °C 81 % 1018,3 hPa 0,0 l/m² 0 min 321 W/m² 19,3 km/h (3 Bft) 100,00 %
05.04.2026 14:38 12,4 °C 12,8 °C 7,2 °C 81 % 1018,3 hPa 0,0 l/m² 0 min 313 W/m² 9,7 km/h (2 Bft) 100,00 %
05.04.2026 14:40 12,4 °C 13,3 °C 7,8 °C 82 % 1018,3 hPa 0,0 l/m² 0 min 316 W/m² 16,1 km/h (3 Bft) 95,92 %
05.04.2026 14:42 12,4 °C 13,9 °C 7,8 °C 82 % 1018,3 hPa 0,0 l/m² 0 min 302 W/m² 19,3 km/h (3 Bft) 100,00 %
05.04.2026 14:44 12,4 °C 13,3 °C 7,8 °C 82 % 1018,3 hPa 0,0 l/m² 0 min 280 W/m² 12,9 km/h (3 Bft) 97,87 %
05.04.2026 14:46 12,5 °C 13,3 °C 7,8 °C 82 % 1018,2 hPa 0,0 l/m² 0 min 273 W/m² 12,9 km/h (3 Bft) 100,00 %
05.04.2026 14:48 12,6 °C 13,3 °C 7,2 °C 81 % 1018,3 hPa 0,0 l/m² 0 min 266 W/m² 19,3 km/h (3 Bft) 97,87 %
05.04.2026 14:50 12,6 °C 13,3 °C 7,2 °C 80 % 1018,2 hPa 0,0 l/m² 0 min 279 W/m² 16,1 km/h (3 Bft) 97,87 %
05.04.2026 14:52 12,6 °C 13,3 °C 7,8 °C 80 % 1018,3 hPa 0,0 l/m² 0 min 285 W/m² 16,1 km/h (3 Bft) 97,87 %
05.04.2026 14:54 12,6 °C 13,3 °C 7,8 °C 80 % 1018,4 hPa 0,0 l/m² 0 min 241 W/m² 12,9 km/h (3 Bft) 97,87 %
05.04.2026 14:56 12,7 °C 12,8 °C 7,8 °C 77 % 1018,4 hPa 0,0 l/m² 0 min 211 W/m² 25,7 km/h (4 Bft) 97,14 %
05.04.2026 14:58 12,6 °C 12,8 °C 7,8 °C 77 % 1018,3 hPa 0,0 l/m² 0 min 200 W/m² 16,1 km/h (3 Bft) 98,00 %
05.04.2026 15:00 12,6 °C 12,8 °C 8,3 °C 77 % 1018,3 hPa 0,0 l/m² 0 min 177 W/m² 25,7 km/h (4 Bft) 97,83 %
05.04.2026 15:02 12,6 °C 12,8 °C 8,3 °C 76 % 1018,3 hPa 0,0 l/m² 0 min 158 W/m² 25,7 km/h (4 Bft) 96,15 %
05.04.2026 15:04 12,6 °C 12,8 °C 8,9 °C 76 % 1018,3 hPa 0,0 l/m² 0 min 144 W/m² 19,3 km/h (3 Bft) 97,87 %
05.04.2026 15:06 12,6 °C 12,2 °C 8,9 °C 76 % 1018,4 hPa 0,0 l/m² 0 min 126 W/m² 25,7 km/h (4 Bft) 98,15 %
05.04.2026 15:08 12,6 °C 12,2 °C 8,9 °C 76 % 1018,3 hPa 0,0 l/m² 0 min 119 W/m² 25,7 km/h (4 Bft) 94,29 %
05.04.2026 15:10 12,6 °C 12,2 °C 8,9 °C 76 % 1018,3 hPa 0,0 l/m² 0 min 141 W/m² 22,5 km/h (4 Bft) 91,49 %
05.04.2026 15:12 12,5 °C 12,2 °C 8,3 °C 76 % 1018,3 hPa 0,0 l/m² 0 min 156 W/m² 32,2 km/h (5 Bft) 95,74 %
05.04.2026 15:14 12,5 °C 12,2 °C 8,3 °C 75 % 1018,5 hPa 0,0 l/m² 0 min 165 W/m² 32,2 km/h (5 Bft) 95,74 %
05.04.2026 15:16 12,4 °C 12,2 °C 8,3 °C 75 % 1018,5 hPa 0,0 l/m² 0 min 184 W/m² 29,0 km/h (5 Bft) 95,92 %
05.04.2026 15:18 12,4 °C 12,2 °C 8,3 °C 75 % 1018,6 hPa 0,0 l/m² 0 min 185 W/m² 29,0 km/h (5 Bft) 93,62 %
05.04.2026 15:20 12,3 °C 12,2 °C 8,3 °C 74 % 1018,6 hPa 0,0 l/m² 0 min 169 W/m² 38,6 km/h (5 Bft) 95,74 %
05.04.2026 15:22 12,2 °C 12,2 °C 8,3 °C 74 % 1018,7 hPa 0,0 l/m² 0 min 179 W/m² 35,4 km/h (5 Bft) 95,74 %
05.04.2026 15:24 12,1 °C 11,7 °C 8,3 °C 74 % 1018,6 hPa 0,0 l/m² 0 min 181 W/m² 32,2 km/h (5 Bft) 95,74 %
05.04.2026 15:26 12,1 °C 11,7 °C 8,3 °C 75 % 1018,5 hPa 0,0 l/m² 0 min 165 W/m² 25,7 km/h (4 Bft) 96,00 %
05.04.2026 15:28 12,0 °C 11,7 °C 8,3 °C 75 % 1018,5 hPa 0,0 l/m² 0 min 163 W/m² 16,1 km/h (3 Bft) 95,74 %
05.04.2026 15:30 11,9 °C 11,7 °C 8,3 °C 75 % 1018,6 hPa 0,0 l/m² 0 min 191 W/m² 19,3 km/h (3 Bft) 95,92 %
05.04.2026 15:32 11,9 °C 11,7 °C 8,3 °C 75 % 1018,6 hPa 0,0 l/m² 0 min 180 W/m² 22,5 km/h (4 Bft) 95,74 %
05.04.2026 15:34 11,9 °C 11,7 °C 7,8 °C 75 % 1018,6 hPa 0,0 l/m² 0 min 176 W/m² 25,7 km/h (4 Bft) 95,56 %
05.04.2026 15:36 11,9 °C 12,2 °C 8,3 °C 75 % 1018,6 hPa 0,0 l/m² 0 min 222 W/m² 22,5 km/h (4 Bft) 93,62 %
05.04.2026 15:38 11,9 °C 13,9 °C 8,3 °C 75 % 1018,6 hPa 0,0 l/m² 0 min 264 W/m² 22,5 km/h (4 Bft) 97,37 %
05.04.2026 15:40 12,1 °C 15,6 °C 8,9 °C 75 % 1018,6 hPa 0,0 l/m² 2 min 441 W/m² 32,2 km/h (5 Bft) 93,22 %
05.04.2026 15:42 12,3 °C 16,1 °C 8,9 °C 75 % 1018,6 hPa 0,0 l/m² 2 min 557 W/m² 22,5 km/h (4 Bft) 100,00 %
05.04.2026 15:44 12,5 °C 15,6 °C 9,4 °C 75 % 1018,7 hPa 0,0 l/m² 2 min 494 W/m² 41,8 km/h (6 Bft) 98,00 %
05.04.2026 15:46 12,6 °C 15,0 °C 8,9 °C 74 % 1018,6 hPa 0,0 l/m² 2 min 316 W/m² 25,7 km/h (4 Bft) 100,00 %
05.04.2026 15:48 12,6 °C 14,4 °C 8,9 °C 73 % 1018,7 hPa 0,0 l/m² 0 min 289 W/m² 54,7 km/h (7 Bft) 97,96 %
05.04.2026 15:50 12,6 °C 13,9 °C 8,9 °C 73 % 1018,6 hPa 0,0 l/m² 0 min 233 W/m² 22,5 km/h (4 Bft) 94,00 %
05.04.2026 15:52 12,6 °C 13,9 °C 8,9 °C 73 % 1018,5 hPa 0,0 l/m² 0 min 214 W/m² 45,1 km/h (6 Bft) 94,74 %
05.04.2026 15:54 12,6 °C 13,9 °C 8,9 °C 73 % 1018,5 hPa 0,0 l/m² 0 min 256 W/m² 35,4 km/h (5 Bft) 100,00 %
05.04.2026 15:56 12,6 °C 14,4 °C 8,9 °C 74 % 1018,5 hPa 0,0 l/m² 2 min 303 W/m² 19,3 km/h (3 Bft) 100,00 %
05.04.2026 15:58 12,7 °C 14,4 °C 8,9 °C 73 % 1018,5 hPa 0,0 l/m² 2 min 306 W/m² 19,3 km/h (3 Bft) 98,11 %
05.04.2026 16:00 12,8 °C 17,2 °C 9,4 °C 74 % 1018,5 hPa 0,0 l/m² 2 min 313 W/m² 16,1 km/h (3 Bft) 97,87 %
05.04.2026 16:02 13,1 °C 18,3 °C 10,0 °C 75 % 1018,5 hPa 0,0 l/m² 2 min 313 W/m² 35,4 km/h (5 Bft) 97,87 %
05.04.2026 16:04 13,3 °C 18,3 °C 10,0 °C 73 % 1018,5 hPa 0,0 l/m² 2 min 742 W/m² 25,7 km/h (4 Bft) 97,96 %
05.04.2026 16:06 13,6 °C 18,3 °C 10,0 °C 72 % 1018,4 hPa 0,0 l/m² 2 min 665 W/m² 25,7 km/h (4 Bft) 97,87 %
05.04.2026 16:08 13,8 °C 18,9 °C 10,0 °C 72 % 1018,4 hPa 0,0 l/m² 2 min 627 W/m² 29,0 km/h (5 Bft) 97,87 %
05.04.2026 16:10 13,9 °C 18,3 °C 10,0 °C 71 % 1018,5 hPa 0,0 l/m² 2 min 620 W/m² 35,4 km/h (5 Bft) 95,74 %
05.04.2026 16:12 14,0 °C 18,3 °C 10,0 °C 70 % 1018,4 hPa 0,0 l/m² 2 min 614 W/m² 38,6 km/h (5 Bft) 100,00 %
05.04.2026 16:14 14,1 °C 18,3 °C 10,0 °C 70 % 1018,5 hPa 0,0 l/m² 2 min 584 W/m² 45,1 km/h (6 Bft) 97,87 %
05.04.2026 16:16 14,1 °C 17,8 °C 10,0 °C 69 % 1018,5 hPa 0,0 l/m² 2 min 619 W/m² 41,8 km/h (6 Bft) 95,74 %
05.04.2026 16:18 14,3 °C 17,8 °C 10,0 °C 69 % 1018,4 hPa 0,0 l/m² 2 min 649 W/m² 25,7 km/h (4 Bft) 98,11 %
05.04.2026 16:20 14,3 °C 17,8 °C 10,6 °C 67 % 1018,5 hPa 0,0 l/m² 2 min 634 W/m² 35,4 km/h (5 Bft) 96,00 %
05.04.2026 16:22 14,3 °C 17,8 °C 10,0 °C 66 % 1018,5 hPa 0,0 l/m² 2 min 625 W/m² 32,2 km/h (5 Bft) 97,83 %
05.04.2026 16:24 14,3 °C 18,3 °C 10,6 °C 66 % 1018,5 hPa 0,0 l/m² 2 min 647 W/m² 38,6 km/h (5 Bft) 97,87 %
05.04.2026 16:26 14,3 °C 17,2 °C 10,6 °C 66 % 1018,5 hPa 0,0 l/m² 2 min 451 W/m² 41,8 km/h (6 Bft) 97,87 %
05.04.2026 16:28 14,4 °C 17,2 °C 10,6 °C 67 % 1018,5 hPa 0,0 l/m² 0 min 237 W/m² 41,8 km/h (6 Bft) 97,87 %
05.04.2026 16:30 14,4 °C 17,8 °C 10,6 °C 67 % 1018,6 hPa 0,0 l/m² 0 min 237 W/m² 22,5 km/h (4 Bft) 97,87 %
05.04.2026 16:32 14,6 °C 18,9 °C 11,1 °C 68 % 1018,6 hPa 0,0 l/m² 2 min 655 W/m² 32,2 km/h (5 Bft) 97,37 %
05.04.2026 16:34 14,7 °C 18,9 °C 11,1 °C 68 % 1018,7 hPa 0,0 l/m² 2 min 663 W/m² 16,1 km/h (3 Bft) 97,87 %
05.04.2026 16:36 14,7 °C 18,3 °C 11,1 °C 67 % 1018,6 hPa 0,0 l/m² 2 min 663 W/m² 25,7 km/h (4 Bft) 97,87 %
05.04.2026 16:38 14,7 °C 18,3 °C 11,1 °C 67 % 1018,6 hPa 0,0 l/m² 2 min 666 W/m² 25,7 km/h (4 Bft) 97,87 %
05.04.2026 16:40 14,7 °C 17,2 °C 11,1 °C 67 % 1018,6 hPa 0,0 l/m² 2 min 425 W/m² 19,3 km/h (3 Bft) 96,00 %
05.04.2026 16:42 14,7 °C 17,2 °C 11,1 °C 68 % 1018,6 hPa 0,0 l/m² 2 min 319 W/m² 19,3 km/h (3 Bft) 93,48 %
05.04.2026 16:44 14,7 °C 16,1 °C 10,6 °C 67 % 1018,7 hPa 0,0 l/m² 2 min 314 W/m² 29,0 km/h (5 Bft) 95,74 %
05.04.2026 16:46 14,4 °C 15,0 °C 10,6 °C 66 % 1018,6 hPa 0,0 l/m² 0 min 184 W/m² 29,0 km/h (5 Bft) 97,87 %
05.04.2026 16:48 14,3 °C 14,4 °C 10,0 °C 68 % 1018,7 hPa 0,0 l/m² 0 min 171 W/m² 19,3 km/h (3 Bft) 97,87 %
05.04.2026 16:50 14,2 °C 13,9 °C 10,0 °C 68 % 1018,7 hPa 0,0 l/m² 0 min 151 W/m² 25,7 km/h (4 Bft) 98,00 %
05.04.2026 16:52 14,0 °C 13,9 °C 10,0 °C 68 % 1018,6 hPa 0,0 l/m² 0 min 100 W/m² 29,0 km/h (5 Bft) 95,74 %
05.04.2026 16:54 13,9 °C 13,3 °C 9,4 °C 68 % 1018,7 hPa 0,0 l/m² 0 min 64 W/m² 25,7 km/h (4 Bft) 97,87 %
05.04.2026 16:56 13,7 °C 12,8 °C 9,4 °C 68 % 1018,9 hPa 0,0 l/m² 0 min 45 W/m² 25,7 km/h (4 Bft) 97,96 %
05.04.2026 16:58 13,5 °C 12,2 °C 8,9 °C 69 % 1019,1 hPa 0,0 l/m² 0 min 31 W/m² 32,2 km/h (5 Bft) 97,87 %
05.04.2026 17:00 12,9 °C 10,6 °C 6,7 °C 77 % 1019,4 hPa 0,5 l/m² 0 min 50 W/m² 29,0 km/h (5 Bft) 95,74 %
05.04.2026 17:02 12,5 °C 10,0 °C 6,1 °C 79 % 1019,3 hPa 0,0 l/m² 0 min 80 W/m² 22,5 km/h (4 Bft) 97,37 %
05.04.2026 17:04 12,1 °C 10,6 °C 6,1 °C 80 % 1019,1 hPa 0,0 l/m² 0 min 176 W/m² 16,1 km/h (3 Bft) 100,00 %
05.04.2026 17:06 11,8 °C 12,8 °C 6,1 °C 82 % 1019,0 hPa 0,0 l/m² 2 min 266 W/m² 12,9 km/h (3 Bft) 100,00 %
05.04.2026 17:08 11,8 °C 14,4 °C 6,7 °C 84 % 1019,0 hPa 0,0 l/m² 2 min 608 W/m² 9,7 km/h (2 Bft) 100,00 %
05.04.2026 17:10 11,8 °C 15,0 °C 6,7 °C 85 % 1019,0 hPa 0,0 l/m² 2 min 507 W/m² 19,3 km/h (3 Bft) 100,00 %
05.04.2026 17:12 11,9 °C 15,6 °C 7,2 °C 86 % 1019,0 hPa 0,0 l/m² 2 min 458 W/m² 9,7 km/h (2 Bft) 97,87 %
05.04.2026 17:14 11,9 °C 15,6 °C 6,7 °C 86 % 1019,1 hPa 0,0 l/m² 2 min 434 W/m² 16,1 km/h (3 Bft) 96,15 %
05.04.2026 17:16 12,0 °C 15,6 °C 7,2 °C 86 % 1019,1 hPa 0,0 l/m² 2 min 421 W/m² 19,3 km/h (3 Bft) 97,87 %
05.04.2026 17:18 12,1 °C 16,1 °C 7,2 °C 86 % 1019,1 hPa 0,0 l/m² 2 min 416 W/m² 19,3 km/h (3 Bft) 100,00 %
05.04.2026 17:20 12,2 °C 16,1 °C 7,2 °C 85 % 1019,1 hPa 0,0 l/m² 2 min 428 W/m² 16,1 km/h (3 Bft) 100,00 %
05.04.2026 17:22 12,2 °C 15,6 °C 7,8 °C 84 % 1019,1 hPa 0,0 l/m² 2 min 432 W/m² 16,1 km/h (3 Bft) 98,21 %
05.04.2026 17:24 12,2 °C 16,1 °C 7,8 °C 84 % 1019,1 hPa 0,0 l/m² 2 min 471 W/m² 12,9 km/h (3 Bft) 97,37 %
05.04.2026 17:26 12,3 °C 16,1 °C 8,3 °C 84 % 1019,1 hPa 0,0 l/m² 2 min 394 W/m² 16,1 km/h (3 Bft) 98,31 %
05.04.2026 17:28 12,5 °C 16,1 °C 8,9 °C 84 % 1019,1 hPa 0,0 l/m² 2 min 422 W/m² 12,9 km/h (3 Bft) 97,14 %
05.04.2026 17:30 12,6 °C 15,0 °C 8,9 °C 84 % 1019,1 hPa 0,0 l/m² 2 min 316 W/m² 16,1 km/h (3 Bft) 100,00 %
05.04.2026 17:32 12,6 °C 13,9 °C 8,9 °C 83 % 1019,1 hPa 0,0 l/m² 0 min 116 W/m² 12,9 km/h (3 Bft) 95,92 %
05.04.2026 17:34 12,5 °C 12,8 °C 8,3 °C 83 % 1019,0 hPa 0,0 l/m² 0 min 96 W/m² 6,4 km/h (2 Bft) 96,00 %
05.04.2026 17:36 12,5 °C 12,2 °C 8,3 °C 83 % 1019,1 hPa 0,0 l/m² 0 min 92 W/m² 6,4 km/h (2 Bft) 95,74 %
05.04.2026 17:38 12,5 °C 12,2 °C 8,3 °C 83 % 1019,2 hPa 0,0 l/m² 0 min 66 W/m² 6,4 km/h (2 Bft) 95,74 %
05.04.2026 17:40 12,4 °C 12,2 °C 8,3 °C 84 % 1019,3 hPa 0,0 l/m² 0 min 58 W/m² 16,1 km/h (3 Bft) 94,74 %
05.04.2026 17:42 12,4 °C 12,2 °C 8,3 °C 83 % 1019,4 hPa 0,0 l/m² 0 min 78 W/m² 19,3 km/h (3 Bft) 95,74 %
05.04.2026 17:44 12,3 °C 12,2 °C 8,3 °C 83 % 1019,3 hPa 0,0 l/m² 0 min 106 W/m² 19,3 km/h (3 Bft) 95,74 %
05.04.2026 17:46 12,3 °C 12,2 °C 7,8 °C 83 % 1019,4 hPa 0,0 l/m² 2 min 184 W/m² 19,3 km/h (3 Bft) 91,49 %
05.04.2026 17:48 12,2 °C 13,9 °C 8,3 °C 83 % 1019,3 hPa 0,0 l/m² 2 min 342 W/m² 16,1 km/h (3 Bft) 93,62 %
05.04.2026 17:50 12,3 °C 15,0 °C 8,9 °C 83 % 1019,3 hPa 0,0 l/m² 2 min 455 W/m² 16,1 km/h (3 Bft) 93,88 %
05.04.2026 17:52 12,4 °C 15,6 °C 8,9 °C 83 % 1019,2 hPa 0,0 l/m² 2 min 382 W/m² 22,5 km/h (4 Bft) 95,74 %
05.04.2026 17:54 12,4 °C 15,0 °C 8,9 °C 82 % 1019,2 hPa 0,0 l/m² 2 min 311 W/m² 12,9 km/h (3 Bft) 93,62 %
05.04.2026 17:56 12,5 °C 15,0 °C 8,9 °C 81 % 1019,3 hPa 0,0 l/m² 2 min 243 W/m² 12,9 km/h (3 Bft) 93,62 %
05.04.2026 17:58 12,5 °C 13,9 °C 8,9 °C 81 % 1019,3 hPa 0,0 l/m² 0 min 135 W/m² 12,9 km/h (3 Bft) 96,00 %
05.04.2026 18:00 12,4 °C 13,3 °C 8,3 °C 80 % 1019,3 hPa 0,0 l/m² 2 min 183 W/m² 19,3 km/h (3 Bft) 97,62 %
05.04.2026 18:02 12,4 °C 13,3 °C 8,3 °C 79 % 1019,4 hPa 0,0 l/m² 0 min 134 W/m² 19,3 km/h (3 Bft) 98,00 %
05.04.2026 18:04 12,3 °C 12,8 °C 8,3 °C 78 % 1019,4 hPa 0,0 l/m² 0 min 144 W/m² 16,1 km/h (3 Bft) 97,83 %
05.04.2026 18:06 12,3 °C 12,8 °C 8,3 °C 77 % 1019,5 hPa 0,0 l/m² 0 min 112 W/m² 19,3 km/h (3 Bft) 98,00 %
05.04.2026 18:08 12,3 °C 12,8 °C 8,3 °C 78 % 1019,5 hPa 0,0 l/m² 0 min 127 W/m² 12,9 km/h (3 Bft) 95,74 %
05.04.2026 18:10 12,2 °C 12,8 °C 8,3 °C 77 % 1019,5 hPa 0,0 l/m² 0 min 135 W/m² 22,5 km/h (4 Bft) 95,74 %
05.04.2026 18:12 12,2 °C 12,8 °C 8,3 °C 76 % 1019,6 hPa 0,0 l/m² 2 min 176 W/m² 19,3 km/h (3 Bft) 97,87 %
05.04.2026 18:14 12,2 °C 12,8 °C 8,3 °C 76 % 1019,6 hPa 0,0 l/m² 2 min 214 W/m² 12,9 km/h (3 Bft) 97,87 %
05.04.2026 18:16 12,2 °C 13,3 °C 8,3 °C 76 % 1019,6 hPa 0,0 l/m² 2 min 218 W/m² 12,9 km/h (3 Bft) 97,87 %
05.04.2026 18:18 12,2 °C 13,3 °C 8,3 °C 75 % 1019,7 hPa 0,0 l/m² 2 min 199 W/m² 25,7 km/h (4 Bft) 97,87 %
05.04.2026 18:20 12,2 °C 13,3 °C 8,3 °C 75 % 1019,6 hPa 0,0 l/m² 2 min 176 W/m² 22,5 km/h (4 Bft) 95,74 %
05.04.2026 18:22 12,3 °C 12,8 °C 8,3 °C 75 % 1019,6 hPa 0,0 l/m² 2 min 178 W/m² 19,3 km/h (3 Bft) 97,83 %
05.04.2026 18:24 12,3 °C 13,3 °C 8,3 °C 75 % 1019,7 hPa 0,0 l/m² 2 min 233 W/m² 19,3 km/h (3 Bft) 97,87 %
05.04.2026 18:26 12,3 °C 13,9 °C 8,3 °C 75 % 1019,7 hPa 0,0 l/m² 2 min 213 W/m² 12,9 km/h (3 Bft) 100,00 %
05.04.2026 18:28 12,4 °C 13,9 °C 8,9 °C 75 % 1019,7 hPa 0,0 l/m² 2 min 208 W/m² 9,7 km/h (2 Bft) 100,00 %
05.04.2026 18:30 12,5 °C 14,4 °C 8,9 °C 75 % 1019,7 hPa 0,0 l/m² 2 min 230 W/m² 9,7 km/h (2 Bft) 97,87 %
05.04.2026 18:32 12,6 °C 14,4 °C 8,9 °C 75 % 1019,7 hPa 0,0 l/m² 2 min 214 W/m² 16,1 km/h (3 Bft) 100,00 %
05.04.2026 18:34 12,6 °C 12,8 °C 8,3 °C 75 % 1019,8 hPa 0,0 l/m² 0 min 92 W/m² 16,1 km/h (3 Bft) 100,00 %
05.04.2026 18:36 12,5 °C 12,2 °C 8,3 °C 74 % 1019,9 hPa 0,0 l/m² 0 min 57 W/m² 16,1 km/h (3 Bft) 100,00 %
05.04.2026 18:38 12,4 °C 12,2 °C 8,3 °C 74 % 1020,0 hPa 0,0 l/m² 0 min 53 W/m² 12,9 km/h (3 Bft) 100,00 %
05.04.2026 18:40 12,3 °C 11,7 °C 7,8 °C 74 % 1020,0 hPa 0,0 l/m² 0 min 56 W/m² 19,3 km/h (3 Bft) 98,18 %
05.04.2026 18:42 12,3 °C 11,7 °C 7,8 °C 74 % 1019,9 hPa 0,0 l/m² 0 min 52 W/m² 12,9 km/h (3 Bft) 100,00 %
05.04.2026 18:44 12,3 °C 11,7 °C 7,8 °C 75 % 1019,9 hPa 0,0 l/m² 0 min 46 W/m² 16,1 km/h (3 Bft) 97,87 %
05.04.2026 18:46 12,2 °C 11,7 °C 7,8 °C 75 % 1020,0 hPa 0,0 l/m² 0 min 41 W/m² 16,1 km/h (3 Bft) 100,00 %
05.04.2026 18:48 12,1 °C 11,7 °C 7,8 °C 75 % 1020,1 hPa 0,0 l/m² 0 min 40 W/m² 16,1 km/h (3 Bft) 100,00 %
05.04.2026 18:50 12,1 °C 11,7 °C 7,8 °C 75 % 1020,1 hPa 0,0 l/m² 0 min 37 W/m² 19,3 km/h (3 Bft) 100,00 %
05.04.2026 18:52 12,1 °C 11,1 °C 7,8 °C 75 % 1020,1 hPa 0,0 l/m² 0 min 25 W/m² 19,3 km/h (3 Bft) 100,00 %
05.04.2026 18:54 12,1 °C 11,1 °C 7,8 °C 75 % 1020,3 hPa 0,0 l/m² 0 min 15 W/m² 25,7 km/h (4 Bft) 100,00 %
05.04.2026 18:56 12,0 °C 11,1 °C 7,2 °C 75 % 1020,4 hPa 0,0 l/m² 0 min 12 W/m² 35,4 km/h (5 Bft) 100,00 %
05.04.2026 18:58 11,9 °C 10,6 °C 7,2 °C 77 % 1020,5 hPa 0,0 l/m² 0 min 11 W/m² 29,0 km/h (5 Bft) 100,00 %
05.04.2026 19:00 11,7 °C 10,6 °C 6,7 °C 77 % 1020,3 hPa 0,0 l/m² 0 min 19 W/m² 25,7 km/h (4 Bft) 100,00 %
05.04.2026 19:02 11,5 °C 10,0 °C 6,7 °C 79 % 1020,4 hPa 0,0 l/m² 0 min 28 W/m² 19,3 km/h (3 Bft) 100,00 %
05.04.2026 19:04 11,3 °C 10,0 °C 6,7 °C 79 % 1020,4 hPa 0,0 l/m² 0 min 32 W/m² 19,3 km/h (3 Bft) 97,87 %
05.04.2026 19:06 11,2 °C 10,0 °C 6,7 °C 79 % 1020,2 hPa 0,0 l/m² 0 min 35 W/m² 12,9 km/h (3 Bft) 100,00 %
05.04.2026 19:08 11,1 °C 10,0 °C 6,7 °C 79 % 1020,1 hPa 0,0 l/m² 0 min 38 W/m² 12,9 km/h (3 Bft) 100,00 %
05.04.2026 19:10 11,1 °C 10,6 °C 6,7 °C 79 % 1020,0 hPa 0,0 l/m² 0 min 31 W/m² 16,1 km/h (3 Bft) 97,96 %
05.04.2026 19:12 11,0 °C 10,6 °C 6,7 °C 79 % 1020,1 hPa 0,0 l/m² 0 min 25 W/m² 12,9 km/h (3 Bft) 100,00 %
05.04.2026 19:14 11,0 °C 10,6 °C 6,7 °C 79 % 1020,3 hPa 0,0 l/m² 0 min 23 W/m² 9,7 km/h (2 Bft) 97,87 %
05.04.2026 19:16 11,0 °C 10,6 °C 6,7 °C 79 % 1020,4 hPa 0,0 l/m² 0 min 19 W/m² 12,9 km/h (3 Bft) 100,00 %
05.04.2026 19:18 10,9 °C 10,6 °C 6,7 °C 79 % 1020,4 hPa 0,0 l/m² 0 min 21 W/m² 22,5 km/h (4 Bft) 100,00 %
05.04.2026 19:20 10,9 °C 10,6 °C 6,7 °C 79 % 1020,5 hPa 0,0 l/m² 0 min 25 W/m² 19,3 km/h (3 Bft) 97,87 %
05.04.2026 19:22 10,9 °C 10,6 °C 6,7 °C 80 % 1020,5 hPa 0,0 l/m² 0 min 22 W/m² 16,1 km/h (3 Bft) 97,87 %
05.04.2026 19:24 10,9 °C 10,6 °C 6,7 °C 79 % 1020,6 hPa 0,0 l/m² 0 min 16 W/m² 12,9 km/h (3 Bft) 97,87 %
05.04.2026 19:26 10,9 °C 10,6 °C 6,7 °C 80 % 1020,5 hPa 0,0 l/m² 0 min 12 W/m² 12,9 km/h (3 Bft) 94,74 %
05.04.2026 19:28 10,9 °C 10,0 °C 6,7 °C 79 % 1020,6 hPa 0,0 l/m² 0 min 12 W/m² 9,7 km/h (2 Bft) 95,74 %
05.04.2026 19:30 10,9 °C 10,0 °C 6,7 °C 80 % 1020,5 hPa 0,0 l/m² 0 min 12 W/m² 6,4 km/h (2 Bft) 95,65 %
05.04.2026 19:32 10,9 °C 10,0 °C 6,7 °C 79 % 1020,4 hPa 0,0 l/m² 0 min 15 W/m² 12,9 km/h (3 Bft) 93,62 %
05.04.2026 19:34 10,9 °C 10,0 °C 6,7 °C 79 % 1020,5 hPa 0,0 l/m² 0 min 16 W/m² 6,4 km/h (2 Bft) 93,62 %
05.04.2026 19:36 10,9 °C 10,6 °C 6,7 °C 79 % 1020,5 hPa 0,0 l/m² 0 min 15 W/m² 9,7 km/h (2 Bft) 96,00 %
05.04.2026 19:38 10,9 °C 10,0 °C 6,7 °C 79 % 1020,6 hPa 0,0 l/m² 0 min 13 W/m² 12,9 km/h (3 Bft) 95,74 %
05.04.2026 19:40 10,9 °C 10,0 °C 6,7 °C 79 % 1020,6 hPa 0,0 l/m² 0 min 10 W/m² 12,9 km/h (3 Bft) 95,74 %
05.04.2026 19:42 10,9 °C 10,0 °C 6,7 °C 79 % 1020,7 hPa 0,0 l/m² 0 min 6 W/m² 12,9 km/h (3 Bft) 95,74 %
05.04.2026 19:44 10,9 °C 10,0 °C 6,7 °C 79 % 1020,7 hPa 0,0 l/m² 0 min 3 W/m² 6,4 km/h (2 Bft) 97,87 %
05.04.2026 19:46 10,9 °C 10,0 °C 6,7 °C 80 % 1020,6 hPa 0,0 l/m² 0 min 0 W/m² 6,4 km/h (2 Bft) 91,30 %
05.04.2026 19:48 10,9 °C 10,0 °C 6,7 °C 80 % 1020,7 hPa 0,0 l/m² 0 min 0 W/m² 22,5 km/h (4 Bft) 96,00 %
05.04.2026 19:50 10,8 °C 10,0 °C 6,7 °C 80 % 1020,8 hPa 0,0 l/m² 0 min 0 W/m² 9,7 km/h (2 Bft) 96,00 %
05.04.2026 19:52 10,8 °C 10,0 °C 6,7 °C 80 % 1020,8 hPa 0,0 l/m² 0 min 0 W/m² 6,4 km/h (2 Bft) 95,74 %
05.04.2026 19:54 10,8 °C 10,0 °C 6,7 °C 80 % 1020,8 hPa 0,0 l/m² 0 min 0 W/m² 12,9 km/h (3 Bft) 94,74 %
05.04.2026 19:56 10,8 °C 10,0 °C 6,7 °C 80 % 1020,9 hPa 0,0 l/m² 0 min 0 W/m² 6,4 km/h (2 Bft) 96,00 %
05.04.2026 19:58 10,8 °C 10,0 °C 6,7 °C 80 % 1020,8 hPa 0,0 l/m² 0 min 0 W/m² 6,4 km/h (2 Bft) 97,87 %
05.04.2026 20:00 10,8 °C 10,0 °C 6,7 °C 80 % 1020,9 hPa 0,0 l/m² 0 min 0 W/m² 12,9 km/h (3 Bft) 97,87 %
05.04.2026 20:02 10,8 °C 10,0 °C 6,7 °C 80 % 1020,9 hPa 0,0 l/m² 0 min 0 W/m² 16,1 km/h (3 Bft) 95,74 %
05.04.2026 20:04 10,8 °C 10,0 °C 6,7 °C 79 % 1021,0 hPa 0,0 l/m² 0 min 0 W/m² 9,7 km/h (2 Bft) 97,96 %
05.04.2026 20:06 10,8 °C 10,0 °C 6,7 °C 80 % 1021,0 hPa 0,0 l/m² 0 min 0 W/m² 9,7 km/h (2 Bft) 100,00 %
05.04.2026 20:08 10,8 °C 10,0 °C 6,7 °C 80 % 1021,0 hPa 0,0 l/m² 0 min 0 W/m² 12,9 km/h (3 Bft) 100,00 %
05.04.2026 20:10 10,8 °C 10,0 °C 6,7 °C 80 % 1021,1 hPa 0,0 l/m² 0 min 0 W/m² 16,1 km/h (3 Bft) 98,00 %
05.04.2026 20:12 10,8 °C 10,0 °C 6,7 °C 80 % 1021,1 hPa 0,0 l/m² 0 min 0 W/m² 12,9 km/h (3 Bft) 100,00 %
05.04.2026 20:14 10,8 °C 10,0 °C 6,7 °C 79 % 1021,2 hPa 0,0 l/m² 0 min 0 W/m² 16,1 km/h (3 Bft) 97,87 %
05.04.2026 20:16 10,8 °C 10,0 °C 6,7 °C 79 % 1021,2 hPa 0,0 l/m² 0 min 0 W/m² 12,9 km/h (3 Bft) 100,00 %
05.04.2026 20:18 10,8 °C 10,0 °C 6,7 °C 79 % 1021,1 hPa 0,0 l/m² 0 min 0 W/m² 19,3 km/h (3 Bft) 100,00 %
05.04.2026 20:20 10,8 °C 10,0 °C 6,7 °C 78 % 1021,1 hPa 0,0 l/m² 0 min 0 W/m² 19,3 km/h (3 Bft) 100,00 %
05.04.2026 20:22 10,9 °C 10,0 °C 6,7 °C 78 % 1021,1 hPa 0,0 l/m² 0 min 0 W/m² 16,1 km/h (3 Bft) 95,74 %
05.04.2026 20:24 10,9 °C 10,0 °C 6,7 °C 77 % 1021,2 hPa 0,0 l/m² 0 min 0 W/m² 16,1 km/h (3 Bft) 100,00 %
05.04.2026 20:26 10,8 °C 10,0 °C 6,7 °C 77 % 1021,2 hPa 0,0 l/m² 0 min 0 W/m² 9,7 km/h (2 Bft) 100,00 %
05.04.2026 20:28 10,9 °C 10,0 °C 6,7 °C 76 % 1021,2 hPa 0,0 l/m² 0 min 0 W/m² 12,9 km/h (3 Bft) 100,00 %
05.04.2026 20:30 10,9 °C 10,0 °C 6,7 °C 76 % 1021,2 hPa 0,0 l/m² 0 min 0 W/m² 12,9 km/h (3 Bft) 100,00 %
05.04.2026 20:32 10,9 °C 10,0 °C 6,7 °C 76 % 1021,2 hPa 0,0 l/m² 0 min 0 W/m² 19,3 km/h (3 Bft) 100,00 %
05.04.2026 20:34 10,9 °C 10,0 °C 6,7 °C 75 % 1021,2 hPa 0,0 l/m² 0 min 0 W/m² 12,9 km/h (3 Bft) 100,00 %
05.04.2026 20:36 10,8 °C 10,0 °C 6,7 °C 75 % 1021,2 hPa 0,0 l/m² 0 min 0 W/m² 12,9 km/h (3 Bft) 95,65 %
05.04.2026 20:38 10,8 °C 10,0 °C 6,7 °C 75 % 1021,2 hPa 0,0 l/m² 0 min 0 W/m² 12,9 km/h (3 Bft) 97,22 %
05.04.2026 20:40 10,8 °C 10,0 °C 6,7 °C 75 % 1021,3 hPa 0,0 l/m² 0 min 0 W/m² 9,7 km/h (2 Bft) 98,00 %
05.04.2026 20:42 10,8 °C 10,0 °C 6,7 °C 75 % 1021,3 hPa 0,0 l/m² 0 min 0 W/m² 9,7 km/h (2 Bft) 95,65 %
05.04.2026 20:44 10,8 °C 10,0 °C 6,7 °C 75 % 1021,3 hPa 0,0 l/m² 0 min 0 W/m² 9,7 km/h (2 Bft) 96,00 %
05.04.2026 20:46 10,8 °C 10,0 °C 6,7 °C 75 % 1021,3 hPa 0,0 l/m² 0 min 0 W/m² 22,5 km/h (4 Bft) 97,87 %
05.04.2026 20:48 10,8 °C 10,0 °C 6,7 °C 75 % 1021,4 hPa 0,0 l/m² 0 min 0 W/m² 12,9 km/h (3 Bft) 91,49 %
05.04.2026 20:50 10,8 °C 10,0 °C 6,7 °C 76 % 1021,4 hPa 0,0 l/m² 0 min 0 W/m² 12,9 km/h (3 Bft) 97,87 %
05.04.2026 20:52 10,8 °C 10,0 °C 6,7 °C 76 % 1021,5 hPa 0,0 l/m² 0 min 0 W/m² 12,9 km/h (3 Bft) 97,87 %
05.04.2026 20:54 10,8 °C 10,0 °C 6,7 °C 76 % 1021,5 hPa 0,0 l/m² 0 min 0 W/m² 12,9 km/h (3 Bft) 96,15 %
05.04.2026 20:56 10,7 °C 10,0 °C 6,7 °C 75 % 1021,6 hPa 0,0 l/m² 0 min 0 W/m² 12,9 km/h (3 Bft) 97,37 %
05.04.2026 20:58 10,7 °C 10,0 °C 6,7 °C 75 % 1021,6 hPa 0,0 l/m² 0 min 0 W/m² 12,9 km/h (3 Bft) 97,87 %
05.04.2026 21:00 10,7 °C 10,0 °C 6,7 °C 75 % 1021,5 hPa 0,0 l/m² 0 min 0 W/m² 9,7 km/h (2 Bft) 95,74 %
05.04.2026 21:02 10,7 °C 10,0 °C 6,7 °C 75 % 1021,6 hPa 0,0 l/m² 0 min 0 W/m² 12,9 km/h (3 Bft) 98,00 %
05.04.2026 21:04 10,7 °C 10,0 °C 6,7 °C 75 % 1021,6 hPa 0,0 l/m² 0 min 0 W/m² 16,1 km/h (3 Bft) 95,74 %
05.04.2026 21:06 10,7 °C 10,0 °C 6,7 °C 75 % 1021,7 hPa 0,0 l/m² 0 min 0 W/m² 12,9 km/h (3 Bft) 96,00 %
05.04.2026 21:08 10,7 °C 10,0 °C 6,7 °C 75 % 1021,7 hPa 0,0 l/m² 0 min 0 W/m² 6,4 km/h (2 Bft) 96,00 %
05.04.2026 21:10 10,7 °C 10,0 °C 6,7 °C 75 % 1021,8 hPa 0,0 l/m² 0 min 0 W/m² 9,7 km/h (2 Bft) 97,83 %
05.04.2026 21:12 10,6 °C 10,0 °C 6,1 °C 75 % 1021,8 hPa 0,0 l/m² 0 min 0 W/m² 6,4 km/h (2 Bft) 95,74 %
05.04.2026 21:14 10,6 °C 10,0 °C 6,1 °C 75 % 1021,9 hPa 0,0 l/m² 0 min 0 W/m² 16,1 km/h (3 Bft) 97,87 %
05.04.2026 21:16 10,6 °C 10,0 °C 6,1 °C 75 % 1021,9 hPa 0,0 l/m² 0 min 0 W/m² 9,7 km/h (2 Bft) 95,74 %
05.04.2026 21:18 10,6 °C 10,0 °C 6,1 °C 75 % 1021,9 hPa 0,0 l/m² 0 min 0 W/m² 12,9 km/h (3 Bft) 91,49 %
05.04.2026 21:20 10,6 °C 10,0 °C 6,1 °C 75 % 1021,9 hPa 0,0 l/m² 0 min 0 W/m² 6,4 km/h (2 Bft) 94,74 %
05.04.2026 21:22 10,6 °C 10,0 °C 6,1 °C 75 % 1022,0 hPa 0,0 l/m² 0 min 0 W/m² 9,7 km/h (2 Bft) 94,34 %
05.04.2026 21:24 10,6 °C 10,0 °C 6,1 °C 75 % 1022,0 hPa 0,0 l/m² 0 min 0 W/m² 16,1 km/h (3 Bft) 93,62 %
05.04.2026 21:26 10,6 °C 10,0 °C 6,1 °C 75 % 1022,1 hPa 0,0 l/m² 0 min 0 W/m² 9,7 km/h (2 Bft) 97,83 %
05.04.2026 21:28 10,6 °C 10,0 °C 6,1 °C 75 % 1022,1 hPa 0,0 l/m² 0 min 0 W/m² 16,1 km/h (3 Bft) 97,87 %
05.04.2026 21:30 10,5 °C 10,0 °C 6,1 °C 76 % 1022,2 hPa 0,0 l/m² 0 min 0 W/m² 12,9 km/h (3 Bft) 94,00 %
05.04.2026 21:32 10,5 °C 9,4 °C 6,1 °C 75 % 1022,2 hPa 0,0 l/m² 0 min 0 W/m² 6,4 km/h (2 Bft) 95,74 %
05.04.2026 21:34 10,5 °C 9,4 °C 6,1 °C 75 % 1022,2 hPa 0,0 l/m² 0 min 0 W/m² 16,1 km/h (3 Bft) 100,00 %
05.04.2026 21:36 10,5 °C 10,0 °C 6,1 °C 75 % 1022,4 hPa 0,0 l/m² 0 min 0 W/m² 12,9 km/h (3 Bft) 94,83 %
05.04.2026 21:38 10,5 °C 10,0 °C 6,1 °C 75 % 1022,5 hPa 0,0 l/m² 0 min 0 W/m² 12,9 km/h (3 Bft) 91,49 %
05.04.2026 21:40 10,5 °C 9,4 °C 6,1 °C 75 % 1022,5 hPa 0,0 l/m² 0 min 0 W/m² 12,9 km/h (3 Bft) 95,74 %
05.04.2026 21:42 10,5 °C 9,4 °C 6,1 °C 75 % 1022,5 hPa 0,0 l/m² 0 min 0 W/m² 12,9 km/h (3 Bft) 93,62 %
05.04.2026 21:44 10,5 °C 9,4 °C 6,1 °C 75 % 1022,5 hPa 0,0 l/m² 0 min 0 W/m² 12,9 km/h (3 Bft) 97,37 %
05.04.2026 21:46 10,4 °C 9,4 °C 6,1 °C 76 % 1022,5 hPa 0,0 l/m² 0 min 0 W/m² 12,9 km/h (3 Bft) 97,87 %
05.04.2026 21:48 10,4 °C 9,4 °C 6,1 °C 75 % 1022,5 hPa 0,0 l/m² 0 min 0 W/m² 12,9 km/h (3 Bft) 86,96 %
05.04.2026 21:50 10,4 °C 9,4 °C 6,1 °C 75 % 1022,5 hPa 0,0 l/m² 0 min 0 W/m² 9,7 km/h (2 Bft) 42,86 %
05.04.2026 21:52 10,4 °C 9,4 °C 6,1 °C 75 % 1022,5 hPa 0,0 l/m² 0 min 0 W/m² 12,9 km/h (3 Bft) 100,00 %
05.04.2026 21:54 10,4 °C 9,4 °C 6,1 °C 76 % 1022,5 hPa 0,0 l/m² 0 min 0 W/m² 6,4 km/h (2 Bft) 98,15 %
05.04.2026 21:56 10,4 °C 9,4 °C 6,1 °C 75 % 1022,6 hPa 0,0 l/m² 0 min 0 W/m² 12,9 km/h (3 Bft) 97,14 %
05.04.2026 21:58 10,4 °C 9,4 °C 6,1 °C 75 % 1022,6 hPa 0,0 l/m² 0 min 0 W/m² 16,1 km/h (3 Bft) 97,87 %
05.04.2026 22:00 10,4 °C 9,4 °C 6,1 °C 75 % 1022,7 hPa 0,0 l/m² 0 min 0 W/m² 12,9 km/h (3 Bft) 97,87 %
05.04.2026 22:02 10,4 °C 9,4 °C 6,1 °C 75 % 1022,6 hPa 0,0 l/m² 0 min 0 W/m² 12,9 km/h (3 Bft) 97,87 %
05.04.2026 22:04 10,4 °C 9,4 °C 6,1 °C 75 % 1022,7 hPa 0,0 l/m² 0 min 0 W/m² 9,7 km/h (2 Bft) 97,87 %
05.04.2026 22:06 10,4 °C 9,4 °C 6,1 °C 75 % 1022,7 hPa 0,0 l/m² 0 min 0 W/m² 12,9 km/h (3 Bft) 94,92 %
05.04.2026 22:08 10,4 °C 9,4 °C 6,1 °C 75 % 1022,7 hPa 0,0 l/m² 0 min 0 W/m² 6,4 km/h (2 Bft) 97,14 %
05.04.2026 22:10 10,4 °C 9,4 °C 6,1 °C 75 % 1022,8 hPa 0,0 l/m² 0 min 0 W/m² 16,1 km/h (3 Bft) 98,00 %
05.04.2026 22:12 10,4 °C 9,4 °C 6,1 °C 75 % 1022,8 hPa 0,0 l/m² 0 min 0 W/m² 12,9 km/h (3 Bft) 97,87 %
05.04.2026 22:14 10,4 °C 9,4 °C 6,1 °C 75 % 1022,9 hPa 0,0 l/m² 0 min 0 W/m² 16,1 km/h (3 Bft) 97,87 %
05.04.2026 22:16 10,4 °C 9,4 °C 6,1 °C 75 % 1022,9 hPa 0,0 l/m² 0 min 0 W/m² 12,9 km/h (3 Bft) 96,00 %
05.04.2026 22:18 10,3 °C 9,4 °C 6,1 °C 75 % 1022,9 hPa 0,0 l/m² 0 min 0 W/m² 12,9 km/h (3 Bft) 100,00 %
05.04.2026 22:20 10,3 °C 9,4 °C 6,1 °C 75 % 1023,0 hPa 0,0 l/m² 0 min 0 W/m² 12,9 km/h (3 Bft) 96,00 %
05.04.2026 22:22 10,3 °C 9,4 °C 6,1 °C 75 % 1022,9 hPa 0,0 l/m² 0 min 0 W/m² 16,1 km/h (3 Bft) 97,83 %
05.04.2026 22:24 10,3 °C 9,4 °C 6,1 °C 75 % 1022,9 hPa 0,0 l/m² 0 min 0 W/m² 6,4 km/h (2 Bft) 97,87 %
05.04.2026 22:26 10,3 °C 9,4 °C 6,1 °C 75 % 1022,9 hPa 0,0 l/m² 0 min 0 W/m² 9,7 km/h (2 Bft) 97,87 %
05.04.2026 22:28 10,3 °C 9,4 °C 6,1 °C 75 % 1023,0 hPa 0,0 l/m² 0 min 0 W/m² 6,4 km/h (2 Bft) 98,11 %
05.04.2026 22:30 10,3 °C 9,4 °C 6,1 °C 75 % 1023,0 hPa 0,0 l/m² 0 min 0 W/m² 16,1 km/h (3 Bft) 97,87 %
05.04.2026 22:32 10,3 °C 9,4 °C 6,1 °C 75 % 1023,0 hPa 0,0 l/m² 0 min 0 W/m² 9,7 km/h (2 Bft) 97,37 %
05.04.2026 22:34 10,3 °C 9,4 °C 6,1 °C 76 % 1023,1 hPa 0,0 l/m² 0 min 0 W/m² 6,4 km/h (2 Bft) 98,25 %
05.04.2026 22:36 10,2 °C 9,4 °C 6,1 °C 76 % 1023,1 hPa 0,0 l/m² 0 min 0 W/m² 6,4 km/h (2 Bft) 97,37 %
05.04.2026 22:38 10,2 °C 9,4 °C 5,6 °C 76 % 1023,0 hPa 0,0 l/m² 0 min 0 W/m² 6,4 km/h (2 Bft) 97,87 %
05.04.2026 22:40 10,2 °C 9,4 °C 5,6 °C 76 % 1023,1 hPa 0,0 l/m² 0 min 0 W/m² 6,4 km/h (2 Bft) 100,00 %
05.04.2026 22:42 10,2 °C 9,4 °C 5,6 °C 76 % 1023,1 hPa 0,0 l/m² 0 min 0 W/m² 12,9 km/h (3 Bft) 100,00 %
05.04.2026 22:44 10,1 °C 9,4 °C 5,6 °C 76 % 1023,1 hPa 0,0 l/m² 0 min 0 W/m² 12,9 km/h (3 Bft) 100,00 %
05.04.2026 22:46 10,1 °C 9,4 °C 5,6 °C 76 % 1023,1 hPa 0,0 l/m² 0 min 0 W/m² 12,9 km/h (3 Bft) 97,87 %
05.04.2026 22:48 10,1 °C 9,4 °C 5,6 °C 76 % 1023,2 hPa 0,0 l/m² 0 min 0 W/m² 9,7 km/h (2 Bft) 100,00 %
05.04.2026 22:50 10,1 °C 9,4 °C 5,6 °C 76 % 1023,3 hPa 0,0 l/m² 0 min 0 W/m² 12,9 km/h (3 Bft) 100,00 %
05.04.2026 22:52 10,1 °C 9,4 °C 5,6 °C 76 % 1023,3 hPa 0,0 l/m² 0 min 0 W/m² 9,7 km/h (2 Bft) 100,00 %
05.04.2026 22:54 10,1 °C 8,9 °C 5,6 °C 76 % 1023,3 hPa 0,0 l/m² 0 min 0 W/m² 6,4 km/h (2 Bft) 100,00 %
05.04.2026 22:56 10,1 °C 8,9 °C 5,6 °C 76 % 1023,3 hPa 0,0 l/m² 0 min 0 W/m² 9,7 km/h (2 Bft) 100,00 %
05.04.2026 22:58 10,0 °C 8,9 °C 5,6 °C 76 % 1023,4 hPa 0,0 l/m² 0 min 0 W/m² 12,9 km/h (3 Bft) 100,00 %
05.04.2026 23:00 10,0 °C 8,9 °C 5,6 °C 76 % 1023,4 hPa 0,0 l/m² 0 min 0 W/m² 6,4 km/h (2 Bft) 97,87 %
05.04.2026 23:02 9,9 °C 8,9 °C 5,6 °C 77 % 1023,4 hPa 0,0 l/m² 0 min 0 W/m² 6,4 km/h (2 Bft) 95,74 %
05.04.2026 23:04 9,9 °C 8,9 °C 5,6 °C 77 % 1023,4 hPa 0,0 l/m² 0 min 0 W/m² 9,7 km/h (2 Bft) 100,00 %
05.04.2026 23:06 9,9 °C 8,9 °C 5,6 °C 77 % 1023,4 hPa 0,0 l/m² 0 min 0 W/m² 6,4 km/h (2 Bft) 98,15 %
05.04.2026 23:08 9,9 °C 8,9 °C 5,6 °C 77 % 1023,4 hPa 0,0 l/m² 0 min 0 W/m² 6,4 km/h (2 Bft) 97,37 %
05.04.2026 23:10 9,9 °C 8,9 °C 5,6 °C 77 % 1023,5 hPa 0,0 l/m² 0 min 0 W/m² 6,4 km/h (2 Bft) 97,96 %
05.04.2026 23:12 9,8 °C 8,9 °C 5,6 °C 77 % 1023,5 hPa 0,0 l/m² 0 min 0 W/m² 9,7 km/h (2 Bft) 98,00 %
05.04.2026 23:14 9,8 °C 8,9 °C 5,6 °C 77 % 1023,5 hPa 0,0 l/m² 0 min 0 W/m² 6,4 km/h (2 Bft) 95,12 %
05.04.2026 23:16 9,8 °C 8,9 °C 5,6 °C 77 % 1023,6 hPa 0,0 l/m² 0 min 0 W/m² 12,9 km/h (3 Bft) 97,87 %
05.04.2026 23:18 9,8 °C 8,9 °C 5,6 °C 78 % 1023,6 hPa 0,0 l/m² 0 min 0 W/m² 6,4 km/h (2 Bft) 97,87 %
05.04.2026 23:20 9,8 °C 8,9 °C 5,6 °C 78 % 1023,6 hPa 0,0 l/m² 0 min 0 W/m² 6,4 km/h (2 Bft) 98,11 %
05.04.2026 23:22 9,7 °C 8,3 °C 5,0 °C 78 % 1023,6 hPa 0,0 l/m² 0 min 0 W/m² 6,4 km/h (2 Bft) 97,87 %
05.04.2026 23:24 9,7 °C 8,3 °C 5,0 °C 78 % 1023,7 hPa 0,0 l/m² 0 min 0 W/m² 9,7 km/h (2 Bft) 98,00 %
05.04.2026 23:26 9,6 °C 8,3 °C 5,0 °C 78 % 1023,7 hPa 0,0 l/m² 0 min 0 W/m² 6,4 km/h (2 Bft) 97,87 %
05.04.2026 23:28 9,6 °C 8,3 °C 5,0 °C 78 % 1023,7 hPa 0,0 l/m² 0 min 0 W/m² 6,4 km/h (2 Bft) 95,65 %
05.04.2026 23:30 9,6 °C 8,3 °C 5,0 °C 78 % 1023,7 hPa 0,0 l/m² 0 min 0 W/m² 3,2 km/h (1 Bft) 97,87 %
05.04.2026 23:32 9,6 °C 8,3 °C 5,0 °C 79 % 1023,8 hPa 0,0 l/m² 0 min 0 W/m² 3,2 km/h (1 Bft) 97,87 %
05.04.2026 23:34 9,5 °C 7,8 °C 5,0 °C 79 % 1023,8 hPa 0,0 l/m² 0 min 0 W/m² 3,2 km/h (1 Bft) 97,14 %
05.04.2026 23:36 9,4 °C 7,8 °C 4,4 °C 79 % 1023,8 hPa 0,0 l/m² 0 min 0 W/m² 0,0 km/h (0 Bft) 100,00 %
05.04.2026 23:38 9,4 °C 7,8 °C 4,4 °C 79 % 1023,8 hPa 0,0 l/m² 0 min 0 W/m² 3,2 km/h (1 Bft) 100,00 %
05.04.2026 23:40 9,4 °C 7,8 °C 4,4 °C 79 % 1023,8 hPa 0,0 l/m² 0 min 0 W/m² 0,0 km/h (0 Bft) 96,43 %
05.04.2026 23:42 9,4 °C 7,8 °C 4,4 °C 79 % 1023,8 hPa 0,0 l/m² 0 min 0 W/m² 0,0 km/h (0 Bft) 97,87 %
05.04.2026 23:44 9,3 °C 7,2 °C 3,9 °C 79 % 1023,9 hPa 0,0 l/m² 0 min 0 W/m² 3,2 km/h (1 Bft) 97,96 %
05.04.2026 23:46 9,3 °C 7,2 °C 3,9 °C 79 % 1023,9 hPa 0,0 l/m² 0 min 0 W/m² 3,2 km/h (1 Bft) 97,22 %
05.04.2026 23:48 9,2 °C 7,2 °C 3,9 °C 80 % 1023,9 hPa 0,0 l/m² 0 min 0 W/m² 0,0 km/h (0 Bft) 97,83 %
05.04.2026 23:50 9,1 °C 7,2 °C 3,9 °C 80 % 1024,0 hPa 0,0 l/m² 0 min 0 W/m² 6,4 km/h (2 Bft) 97,87 %
05.04.2026 23:52 9,0 °C 7,2 °C 3,9 °C 80 % 1024,1 hPa 0,0 l/m² 0 min 0 W/m² 12,9 km/h (3 Bft) 96,61 %
05.04.2026 23:54 8,9 °C 7,8 °C 3,9 °C 80 % 1024,1 hPa 0,0 l/m² 0 min 0 W/m² 6,4 km/h (2 Bft) 97,14 %
05.04.2026 23:56 8,9 °C 7,8 °C 4,4 °C 81 % 1024,2 hPa 0,0 l/m² 0 min 0 W/m² 9,7 km/h (2 Bft) 95,74 %
05.04.2026 23:58 8,8 °C 7,8 °C 4,4 °C 81 % 1024,2 hPa 0,0 l/m² 0 min 0 W/m² 6,4 km/h (2 Bft) 96,23 %
_ Min-Zeit 23:58 23:44 23:44 14:06 05:12 - - - 23:36 21:50
Minimum _ 8,8 °C 7,2 °C 3,9 °C 64 % 1011,1 hPa - - - 0,0 km/h (0 Bft) 42,86 %
_ Max-Zeit 05:36 16:08 12:32 10:18 23:56 17:00 10:32 16:04 15:48 00:04
Maximum _ 15,2 °C 18,9 °C 12,2 °C 89 % 1024,2 hPa 0,5 l/m² 2 min 742 W/m² 54,7 km/h
S-SO (7 Bft)
100,00 %
Durchschnitt _ 12,5 °C 12,3 °C 8,2 °C 77 % 1016,6 hPa #0,5 l/m² #3:50 h 214 W/m² 19,7 km/h (3 Bft) 97,13 %
© 2026 W. Hausmann